ECMWFFLT1_con_mucape_000.txt.gz
CAPE
1649 1698 1361 1149 802 492 450 442 0 180 168 0 0 0 32 22 4 0 0 0 0 0 0 0 0 92 565 306 44 4 25 73 110 252 266 173 206 153 112 242 247 237 312 364 400 382 422 499 447 467 494 550 609 648 687 700 726 749 766 731 772 635 780
1677 1689 1453 1146 696 500 471 436 0 319 33 0 0 0 4 26 0 0 0 0 0 0 0 0 2 4 115 164 4 0 10 25 141 300 177 82 90 50 272 350 353 283 225 160 199 253 363 422 490 506 500 493 476 532 557 594 649 615 696 773 846 995 1055
1626 1579 1393 1182 747 542 514 420 64 396 0 0 0 0 8 10 0 0 0 0 0 0 0 0 0 0 8 6 5 2 0 3 32 46 54 58 46 48 266 347 309 264 240 230 210 260 367 428 448 484 487 558 546 546 554 571 604 624 632 660 740 630 842
1574 1488 1274 1132 844 559 474 434 366 134 0 0 0 0 0 7 0 0 0 0 0 0 0 0 0 0 8 37 11 0 6 7 2 4 3 0 16 44 306 344 254 208 197 218 245 344 448 518 434 401 486 390 405 424 437 455 521 577 585 592 640 718 758
1476 1443 1224 994 810 592 438 429 337 0 0 0 0 0 0 0 0 0 0 0 0 0 0 0 0 0 0 0 0 0 27 4 0 0 0 0 0 5 27 85 124 149 162 242 293 406 470 466 444 373 358 344 357 396 412 475 498 534 556 573 516 498 487
1459 1284 1022 790 701 535 410 380 0 0 0 0 0 0 0 0 0 0 0 0 2 0 0 0 0 0 0 0 0 0 0 0 0 0 0 0 0 0 18 65 74 115 146 265 352 497 555 554 487 400 350 381 407 395 415 456 512 574 651 579 468 455 408
1435 1140 823 655 579 482 377 90 0 0 0 0 0 1 10 0 0 0 0 0 0 0 0 0 0 0 0 0 0 0 0 0 0 0 0 0 0 0 0 0 88 76 90 211 380 504 640 673 612 508 421 439 555 533 484 486 525 616 709 512 469 518 456
1270 985 692 583 521 450 344 270 290 0 0 0 0 0 1 0 0 0 0 0 0 0 0 0 0 0 0 0 0 0 0 0 0 0 0 0 0 0 0 0 0 6 91 123 209 433 625 768 820 793 627 580 717 747 674 613 580 568 668 554 608 566 578
1156 976 660 418 400 414 374 300 0 0 0 0 0 0 0 1 0 0 0 0 0 0 0 0 0 0 0 0 0 0 0 0 0 0 0 0 0 0 0 0 0 16 55 97 168 340 591 806 919 968 703 545 773 858 817 772 704 676 611 606 516 477 501
1098 943 602 466 412 412 374 0 0 0 0 0 0 0 0 0 0 0 0 0 0 0 0 0 0 0 0 0 0 0 0 0 0 0 0 0 0 0 0 0 0 24 50 102 192 334 553 741 1019 1052 826 654 771 752 648 759 614 590 581 402 486 495 575
949 742 460 482 420 448 66 0 0 0 0 0 0 0 0 0 0 0 0 0 0 0 0 0 0 0 0 0 0 0 0 0 0 0 0 0 0 327 105 1 4 40 142 139 206 372 617 816 902 1042 1006 868 714 662 718 799 621 389 370 325 287 249 312
736 572 580 527 500 256 0 0 0 0 0 0 0 0 0 0 0 0 0 0 0 0 0 0 0 0 0 0 0 0 0 0 0 0 0 1 105 404 416 252 45 52 70 171 249 410 640 835 968 955 916 890 802 850 679 481 460 391 296 337 410 480 380
635 629 667 578 380 59 0 0 0 0 0 0 0 0 0 0 0 0 0 0 0 0 0 0 0 0 0 0 0 0 0 0 0 0 0 0 4 266 546 486 218 39 131 275 292 446 664 914 1036 1101 909 890 950 837 620 456 555 425 442 616 529 290 185
660 710 688 520 303 0 0 0 0 0 0 0 0 0 0 0 0 0 0 0 0 0 0 0 0 0 0 0 0 0 0 0 0 0 0 4 57 214 474 338 49 40 62 345 388 461 616 772 846 876 941 968 1004 858 712 438 340 360 404 506 350 154 10
614 675 604 422 207 1 5 0 0 0 0 0 0 0 0 0 0 0 387 0 0 0 0 0 0 0 0 0 0 0 0 0 0 0 4 50 60 106 122 72 23 14 34 406 434 544 590 674 671 634 773 953 910 905 620 535 410 460 279 137 104 15 0
535 582 501 339 62 116 0 0 0 0 0 0 0 0 0 0 0 460 276 0 0 0 0 0 0 0 0 0 0 0 0 0 0 1 2 2 35 87 88 44 27 52 82 264 501 496 487 525 552 698 842 978 904 746 539 390 270 254 184 183 42 20 0
534 529 426 4 138 20 0 0 0 0 0 0 0 0 0 0 0 348 144 0 0 0 0 0 0 0 0 0 0 0 0 0 0 0 2 8 8 31 28 17 14 40 106 287 532 538 476 560 594 618 731 950 892 730 480 324 253 264 88 189 58 8 37
512 481 344 82 112 0 0 0 0 0 1 2 0 0 0 0 0 0 0 0 0 0 0 0 0 0 0 0 0 0 0 0 0 0 5 2 2 2 2 2 13 59 150 312 515 538 472 463 524 546 633 940 850 812 608 200 57 158 294 160 45 35 33
474 436 152 176 36 0 0 0 0 0 2 2 0 0 0 0 0 0 0 0 0 0 0 0 0 0 0 0 0 0 0 0 0 0 0 1 0 0 0 0 20 87 171 451 475 454 393 388 441 508 654 944 897 841 616 138 254 690 474 234 59 0 28
435 284 187 106 0 0 0 0 0 1 8 6 0 4 10 0 0 0 0 0 0 0 0 0 0 0 0 0 0 0 0 0 0 0 0 0 0 0 0 0 40 86 124 397 426 409 374 343 431 524 619 837 1020 943 586 110 622 895 466 224 221 36 29
388 310 128 25 0 0 0 44 274 7 2 4 10 4 0 0 15 193 33 0 0 0 0 0 0 0 0 0 0 0 0 104 34 0 0 0 0 0 0 10 36 62 146 304 436 421 374 415 473 524 784 884 890 944 1030 477 672 881 594 252 318 90 51
130 0 86 33 0 0 0 178 246 165 150 38 68 38 0 125 226 206 193 8 0 0 0 0 0 0 0 0 0 0 67 178 171 0 0 0 0 2 27 52 37 60 120 498 463 430 311 295 328 453 541 628 728 989 866 363 820 858 692 291 277 85 136
0 31 0 0 0 26 43 209 116 134 143 93 16 12 1 248 221 236 231 219 228 238 271 297 314 91 88 85 0 0 320 304 0 0 0 1 5 16 21 38 83 179 335 450 500 452 330 213 220 343 443 593 826 996 780 300 652 726 692 310 233 113 138
0 18 33 146 125 25 11 9 36 138 82 25 10 8 30 230 254 292 328 317 305 281 322 366 392 394 381 331 334 394 434 375 38 0 2 6 10 11 14 39 105 209 426 520 512 476 376 192 277 310 424 622 821 941 824 339 326 516 628 336 216 172 135
0 70 178 102 16 21 18 100 120 87 60 5 14 13 13 52 299 359 385 367 352 337 377 439 482 435 381 424 454 449 475 407 139 1 10 22 15 6 36 134 293 552 519 338 210 340 375 398 287 67 74 287 706 891 810 476 396 563 735 393 205 211 114
166 164 14 20 19 5 118 106 19 66 14 22 41 38 30 33 352 404 401 403 397 419 443 476 458 408 367 18 15 105 433 436 343 194 116 39 2 4 45 288 641 493 214 109 55 418 448 336 20 0 8 103 404 815 852 698 633 758 848 503 186 176 165
0 0 2 0 1 160 1 0 6 68 61 64 75 44 91 202 385 416 484 486 497 496 506 466 376 174 14 1 0 0 377 395 383 42 38 7 6 69 467 402 177 103 30 39 68 65 72 32 2 0 0 16 139 382 679 869 905 906 872 531 184 125 186
0 0 0 9 174 302 0 0 0 10 29 29 40 12 36 368 432 464 486 536 588 598 496 327 94 4 3 4 6 22 142 351 332 14 53 159 297 295 223 56 2 1 0 0 0 7 5 1 2 0 0 0 25 189 402 626 1108 1075 793 525 242 110 128
0 0 0 0 28 599 19 0 0 5 14 12 0 43 330 428 500 526 546 480 345 249 218 149 7 2 2 9 21 212 299 352 314 308 110 88 187 181 218 49 0 0 0 0 0 0 0 0 0 0 0 0 0 24 113 339 628 1082 924 604 309 172 190
0 0 0 0 0 103 485 1 0 8 6 0 50 368 514 548 515 456 342 214 172 185 198 198 50 1 5 88 133 121 308 342 272 83 11 21 22 44 78 0 0 0 0 0 0 0 0 0 0 0 0 0 0 4 30 87 336 359 510 543 476 386 367
0 0 0 0 0 154 572 28 2 4 6 240 292 440 532 478 332 383 462 270 277 300 322 321 277 212 23 29 45 104 153 57 4 0 0 0 0 0 0 0 0 0 0 0 0 0 0 0 0 0 0 0 0 0 2 20 128 279 251 192 305 382 411
0 0 0 0 0 201 438 56 0 0 10 157 297 435 442 303 131 252 262 216 240 280 325 364 308 246 206 49 32 31 16 0 0 0 0 0 0 0 0 0 0 0 0 0 0 0 0 1 0 0 0 0 0 0 0 4 126 212 77 15 7 32 13
0 0 0 0 0 342 290 206 174 92 17 266 361 391 340 259 311 204 190 240 288 308 383 365 206 171 210 128 75 43 0 0 0 0 0 0 0 0 0 0 0 0 0 0 0 0 0 4 1 0 0 0 0 0 0 0 97 86 0 0 0 0 0
0 0 0 0 163 301 226 212 221 218 104 141 368 317 203 183 235 298 334 366 390 429 401 256 182 136 73 50 12 99 0 0 366 760 2 0 0 0 0 0 0 0 0 0 1 1 0 1 0 0 0 0 0 0 0 2 30 24 0 0 0 0 0
0 0 0 0 61 66 232 238 10 1 6 16 126 208 114 132 199 277 352 411 462 344 32 63 510 755 446 294 8 0 297 223 1 116 126 0 0 0 0 0 0 0 0 0 0 1 0 0 0 0 0 0 0 0 0 0 3 0 0 0 0 0 0
0 0 0 0 3 10 0 0 0 0 0 0 0 132 151 235 322 338 324 286 120 0 17 71 239 180 145 51 3 0 0 32 25 0 0 0 0 0 0 213 0 0 0 0 0 0 17 60 17 0 0 0 0 0 0 0 0 0 0 0 0 0 0
0 0 0 0 0 0 0 0 2 0 0 0 0 0 0 304 295 238 0 0 0 0 3 0 45 79 2 21 8 66 52 41 6 0 0 0 0 0 0 0 1 0 0 0 0 26 68 82 62 3 0 0 0 0 0 0 0 0 0 0 0 0 0
0 0 0 0 0 0 0 0 0 0 0 0 0 0 0 0 0 0 149 0 0 0 1 1 12 8 0 1 5 3 439 438 230 72 0 0 0 0 0 0 0 0 0 0 82 94 103 79 57 27 0 0 0 0 0 0 0 0 0 1 14 0 0

ECMWFFLT1_con_mucape_003.txt.gz
CAPE
2172 2226 2281 2256 2040 1734 1588 1258 1066 1080 1300 1321 1221 1230 1040 1148 1175 958 993 826 510 516 631 532 413 775 593 1007 934 1330 1300 1292 1477 1104 902 856 595 537 480 304 302 350 331 329 370 396 508 659 636 617 640 704 733 778 738 703 778 867 1016 1084 1208 1320 923
2068 2078 2102 2048 1920 1613 1374 1150 1027 986 1144 1083 1076 1413 1140 1155 1115 908 902 757 645 534 498 646 628 687 1110 970 1340 1318 1113 1281 1190 1241 1012 906 846 636 443 295 319 315 361 410 446 464 562 537 580 561 492 522 555 596 615 732 766 669 618 793 950 1155 766
1963 2014 2002 1884 1715 1497 1266 988 844 856 1051 796 847 1056 1100 1323 1318 1077 972 808 866 700 643 643 525 690 842 1019 1002 971 920 974 816 733 570 309 307 346 378 418 502 490 442 473 513 528 596 612 688 630 545 569 610 593 590 648 600 535 491 580 774 532 810
1913 1934 2008 1954 1744 1486 1204 918 778 730 902 748 827 1018 1412 1654 1589 1550 1185 938 718 738 526 463 514 702 719 826 917 933 799 903 966 729 387 307 251 312 360 438 518 435 466 483 582 602 655 708 709 771 753 683 717 594 494 509 525 516 557 698 694 675 742
1864 1918 1932 1788 1545 1362 1042 822 706 758 762 638 982 1424 1677 1625 1475 1202 1056 1211 820 672 501 548 655 933 1064 854 829 627 700 790 906 608 366 321 410 416 363 271 328 454 507 558 698 713 703 718 790 798 775 744 597 529 462 432 461 632 610 578 589 534 479
1812 1867 1873 1672 1392 1478 1332 844 621 517 699 628 803 1063 1236 1125 809 487 731 900 731 725 810 831 842 928 770 1014 652 550 604 699 606 557 459 484 470 454 456 340 332 376 338 536 584 722 800 788 874 986 886 842 755 662 710 638 580 593 648 656 610 550 432
1828 1857 1854 1564 1320 1489 1474 926 525 469 631 804 842 998 960 722 657 540 550 702 814 822 708 570 708 629 502 810 868 581 495 319 499 403 451 511 543 594 714 598 472 414 524 613 772 770 809 926 1008 1050 1044 1021 882 900 835 787 786 717 787 782 693 612 689
1864 1874 1804 1453 1286 1478 1497 1037 622 506 553 632 542 464 620 755 863 674 580 425 504 357 336 312 588 650 547 743 730 718 659 642 593 530 540 610 805 793 762 724 598 505 568 656 730 856 822 971 1076 1102 1219 1270 1232 1116 992 1036 1153 1049 937 840 645 584 522
1799 1870 1631 1236 1307 1459 1454 1102 709 602 657 634 714 1020 1184 1254 842 905 893 678 577 512 475 244 335 646 680 634 769 772 851 818 700 782 772 798 919 828 642 675 732 666 614 652 606 722 838 859 915 1157 1219 1238 1321 1189 1112 1054 1027 1047 944 821 663 598 492
1628 1593 1393 1253 1336 1438 1452 1091 826 758 780 836 997 1178 1234 1316 1256 1135 920 656 542 508 534 473 404 354 536 593 534 663 900 774 755 750 624 554 726 804 723 629 817 854 796 756 775 780 800 951 1013 1104 1118 1124 1234 1198 1250 1008 1014 813 773 863 774 750 581
1412 1481 1626 1548 1458 1458 1392 984 712 787 923 1013 1144 1190 1448 1420 1353 1244 1245 857 545 530 531 584 571 436 454 558 460 390 736 583 582 544 605 734 478 505 431 292 377 825 986 920 862 961 944 1033 1119 1133 1158 996 1204 1443 1419 1116 904 754 825 910 1006 984 642
1098 1201 1504 1718 1635 1533 1302 879 896 920 993 1042 1133 1243 1488 1614 1441 1344 1344 1246 967 760 800 635 528 396 397 384 336 391 331 371 432 512 634 701 692 708 726 838 1112 1192 1029 1065 910 974 1116 1247 1298 1290 1352 1312 1474 1718 1523 1211 1108 921 798 736 649 558 632
795 926 1194 1505 1632 1546 1200 953 879 900 1002 988 1085 1353 1472 1530 1414 1290 1423 1415 1158 983 938 936 813 787 558 461 380 474 395 294 340 708 668 811 896 1117 1026 1003 828 726 870 826 775 806 1065 1278 1448 1460 1505 1491 1503 1608 1456 1281 1122 824 779 890 878 724 569
614 734 930 1186 1432 1402 1030 781 950 970 995 1007 1136 1365 1392 1376 1354 1436 1530 1444 1334 1056 820 770 907 830 698 691 759 720 482 374 522 846 992 920 1070 1264 1346 1332 1384 1322 1206 1098 900 917 1108 1275 1367 1480 1515 1588 1557 1624 1556 1401 1056 826 892 1005 936 669 323
501 626 779 1004 1196 1243 998 992 984 975 952 1062 1167 1261 1306 1265 1193 1302 1456 1423 1500 1063 1000 1136 1104 914 830 927 854 808 743 810 880 1018 1078 1036 1209 1366 1466 1448 1394 1330 1193 1096 1148 1140 1308 1432 1526 1533 1598 1588 1643 1571 1440 1367 988 870 757 588 598 385 133
537 540 703 934 1122 1119 992 1095 1110 1067 1088 1129 1142 1244 1335 1303 1310 1348 1412 1349 1159 1233 1136 1150 976 916 908 826 880 926 1002 1104 1192 1153 1198 1162 1179 1321 1335 1223 1284 1170 1151 1134 1171 1278 1470 1662 1658 1572 1542 1586 1621 1486 1398 1370 968 554 111 124 181 166 90
603 554 631 875 1074 931 929 1051 1050 1089 1082 1110 1178 1399 1472 1544 1461 1555 1339 1306 1295 1361 1302 1059 986 996 865 909 984 1052 1212 1311 1265 1226 1157 1202 1159 1246 1328 1324 1212 1134 1195 1296 1387 1528 1576 1703 1700 1548 1506 1548 1572 1518 1208 1024 938 170 161 146 203 216 114
668 638 656 782 890 818 930 870 914 955 1019 1187 1394 1474 1510 1522 1583 1550 1429 1532 1532 1276 1108 968 832 768 917 920 1040 1202 1210 1207 1251 1210 1188 1182 1178 1268 1307 1177 1108 1190 1338 1444 1528 1600 1642 1719 1754 1691 1657 1633 1650 1581 1290 1193 558 195 312 350 279 240 119
714 685 724 698 784 920 837 732 828 963 1065 1374 1452 1413 1388 1520 1482 1568 1654 1862 1763 1430 990 777 668 874 954 1061 1126 1205 1237 1234 1168 1140 1194 1247 1262 1311 1174 1147 1216 1315 1463 1473 1458 1483 1704 1810 1703 1699 1781 1798 1775 1638 1378 1243 826 302 428 463 340 252 76
697 701 712 714 766 852 826 840 863 991 1163 1426 1413 1264 1421 1395 1565 1700 1895 1784 1713 1269 1056 953 973 924 851 1045 1231 1282 1314 1300 1223 1130 1202 1330 1320 1209 1155 1236 1322 1416 1366 1360 1524 1702 1812 1857 1972 1953 1982 1898 1898 1721 1456 1282 874 423 640 572 400 266 112
704 720 684 692 906 866 905 930 1048 1076 1148 1232 1192 1300 1387 1374 1430 1700 1637 1468 1257 1110 1112 1032 1020 1011 957 1021 1185 1284 1271 1230 1272 1250 1260 1300 1229 1156 1163 1323 1421 1480 1456 1422 1514 1675 1804 1953 1939 1756 1700 1700 1766 1876 1713 1555 899 590 641 711 398 257 165
706 705 706 741 917 916 904 975 1032 959 1120 1125 1215 1207 1103 1246 1239 1347 1432 1327 1166 1270 1090 1096 1070 993 1118 1103 1116 1172 1334 1408 1374 1382 1302 1263 1258 1234 1258 1337 1410 1424 1464 1508 1648 1879 2075 2088 2065 1840 1706 1630 1826 1898 1992 1890 923 438 508 657 449 234 475
537 645 704 882 889 985 1130 1133 1140 1095 1455 1387 1236 1299 1158 1164 1334 1386 1477 1302 1099 1204 1126 1002 1002 1036 1226 1216 1204 1280 1366 1446 1367 1323 1318 1322 1196 1218 1160 1276 1229 1374 1618 1558 1651 1764 1902 1996 1887 1931 1750 1644 1780 2032 2009 1932 1597 548 465 536 537 233 542
452 602 806 787 883 989 1087 951 939 1234 1222 1378 1374 1344 1416 1490 1352 1470 1575 1441 1360 1210 1077 1082 1068 1190 1364 1335 1334 1355 1370 1402 1317 1187 1229 1384 1314 1227 1164 1117 1230 1451 1520 1486 1516 1604 1698 1762 1857 1960 1967 1610 1566 1430 1538 1378 1542 878 611 658 659 283 420
312 406 662 604 494 678 698 812 962 1049 1233 1425 1486 1516 1558 1541 1380 1335 1474 1542 1380 1241 1210 1300 1354 1399 1455 1513 1515 1387 1275 1240 1293 1271 1235 1370 1371 1255 1110 1177 1246 1260 1424 1375 1428 1583 1912 1950 1946 1886 1760 1412 1364 1299 1274 1128 1318 1258 843 843 858 347 654
314 407 539 701 748 991 1244 1128 1035 996 1159 1309 1506 1668 1650 1434 1369 1282 1408 1482 1471 1418 1404 1508 1592 1766 1774 1595 1406 1336 1319 1307 1246 1416 1510 1485 1536 1439 1298 1345 1356 1246 1174 1230 1182 1229 1364 1840 1760 1741 1292 1216 1486 1100 1385 1213 1329 1758 1364 982 936 534 270
507 478 483 381 448 669 962 1065 1095 1286 1356 1439 1676 1708 1460 1328 1388 1435 1593 1798 1787 1554 1558 1717 1892 1867 1678 1572 1399 1304 1294 1325 1388 1432 1583 1609 1371 1298 1213 1568 1231 1170 1284 1048 904 1307 1624 1532 1455 1356 1419 1334 1285 1182 1112 979 962 1398 1496 1178 1022 784 319
115 131 378 522 741 960 886 824 1038 1280 1419 1658 1658 1475 1339 1371 1472 1583 1744 1916 1776 1668 1726 1990 1832 1616 1522 1460 1406 1365 1344 1425 1560 1648 1555 1770 1620 1579 1671 1486 1084 882 1103 980 1224 1338 1096 1102 1195 1338 1369 1436 1204 1302 1378 1256 802 1020 1336 1148 978 934 712
432 535 377 422 550 924 774 948 1048 1173 1207 1222 1051 1118 1155 1224 1490 1605 1724 1772 1908 1985 2132 1871 1631 1481 1401 1372 1344 1354 1359 1462 1662 1817 1550 727 474 741 763 799 749 974 1101 1199 1162 1052 883 821 921 865 750 924 1231 1538 1483 1494 1556 996 954 744 428 353 460
688 768 704 510 446 862 956 1047 1279 1313 1310 908 1007 1072 1218 1317 1576 1754 1770 1783 1974 2066 1651 1457 1384 1340 1239 1247 1364 1397 1352 1278 1244 1220 728 655 613 645 942 596 513 487 938 777 862 950 847 844 978 913 630 603 674 1041 1200 1403 1476 1275 728 618 210 3 0
655 722 703 655 380 694 1179 1153 1244 1280 1276 1111 1105 1249 1390 1380 1558 1886 1884 2129 2274 1555 1648 1693 1484 1345 1334 1357 1396 1393 1268 1106 1044 954 925 651 722 534 968 731 505 496 521 667 382 585 715 791 636 804 744 866 882 1076 1164 1269 1219 1130 1307 246 6 0 0
487 512 435 377 514 578 849 1165 1196 1002 1010 1157 965 1078 1412 1566 1702 2027 2249 2082 1736 1668 1541 1449 1327 1400 1277 1278 1212 1189 1028 866 806 870 636 666 649 845 992 646 416 444 690 806 610 601 629 356 461 484 496 630 563 633 849 1051 1409 1353 1234 631 302 142 4
1011 825 862 1001 865 683 802 974 906 998 930 1042 1058 768 912 1439 1589 1852 1980 1611 1522 1304 1398 1320 1400 1320 1266 1188 1010 1130 974 855 660 488 417 519 526 655 713 852 727 696 576 625 696 549 550 374 386 428 399 460 440 482 710 877 1135 1189 395 90 74 110 46
760 550 370 199 229 394 846 966 1058 1023 1130 1118 1275 927 893 1093 1367 1313 1632 1248 885 1020 1296 1347 1314 1018 854 664 833 699 520 546 284 524 576 385 422 418 675 997 478 521 531 634 583 520 442 404 494 454 386 291 270 405 585 572 665 281 0 0 0 0 0
596 608 388 579 622 822 1063 1199 1074 1141 1142 1196 1187 866 936 1044 812 631 932 929 1118 1282 1321 1186 935 950 700 606 355 273 355 212 259 268 278 548 667 676 938 828 395 551 799 125 44 31 28 160 172 50 0 0 36 102 180 228 180 0 0 0 0 0 0
618 387 382 306 555 985 1124 973 1048 1080 988 998 554 570 667 704 506 322 250 590 802 990 1140 1042 728 508 272 206 132 48 65 193 180 266 232 172 260 445 476 271 0 244 789 25 0 0 44 0 0 38 105 76 1 3 1 1 2 0 0 0 0 0 0
660 620 450 474 595 768 714 709 603 574 541 553 468 482 496 558 526 758 626 835 792 752 854 685 609 378 218 167 107 133 288 209 208 214 268 186 302 373 257 263 2 0 0 0 0 67 98 44 104 130 115 13 0 0 0 0 0 0 0 0 0 0 0
335 385 375 327 530 678 544 439 454 439 526 646 706 678 806 722 825 1024 719 905 760 711 784 590 433 451 245 145 232 564 255 226 245 270 214 217 318 497 437 498 748 36 0 0 0 57 82 92 125 130 67 0 0 0 1 0 0 0 0 0 0 0 0

ECMWFFLT1_con_mucape_006.txt.gz
CAPE
2414 2719 2607 2335 2677 3034 3342 3305 3039 2996 2449 1968 1620 1421 1406 1258 1323 1070 809 984 912 796 646 481 391 310 397 397 410 431 449 540 474 299 246 313 318 323 290 238 255 384 345 332 291 298 276 381 400 372 360 434 484 476 462 490 572 680 686 662 889 988 1128
2455 2692 2394 2269 2684 2950 3278 3435 3050 2891 2588 1998 1566 1618 1372 1518 1332 863 920 1104 882 772 618 466 396 429 375 403 438 560 523 452 363 354 254 356 372 388 302 255 287 358 313 286 283 222 249 186 228 267 388 324 376 539 493 472 600 532 463 540 733 930 1068
2627 2682 2266 2240 2835 2973 3291 3272 2985 2578 2458 1814 1395 1477 1420 1598 1278 979 1085 1044 968 883 692 683 546 616 526 495 448 650 573 413 318 218 166 79 85 109 218 348 299 289 284 278 235 184 192 229 289 490 389 398 523 877 616 403 377 388 432 534 766 914 974
2960 2825 2246 2429 2719 2628 2784 2798 2578 2099 1901 1535 1353 1446 1572 1740 1344 1064 1257 871 965 901 779 846 784 668 710 668 579 613 592 477 328 180 140 131 83 102 197 324 316 280 221 206 196 213 350 422 569 575 604 699 644 476 477 508 486 480 568 584 677 848 956
3136 2984 2335 2262 2339 2476 2632 2200 2004 1558 1198 1058 1270 1599 1805 1806 1227 1106 1083 835 839 898 777 995 843 746 737 514 461 490 465 355 282 308 206 107 132 206 308 335 332 311 280 245 206 212 342 391 417 472 566 669 639 382 400 460 418 476 496 509 522 710 653
3017 3038 2294 2140 2382 2740 2523 1814 1335 949 913 888 1309 1702 1779 1380 968 862 1046 1076 975 889 984 1047 921 883 704 870 599 589 510 354 279 239 204 159 95 121 154 228 276 293 266 248 214 206 280 386 464 541 619 480 504 530 507 554 489 450 569 808 630 544 417
2978 3071 2388 2195 2268 2317 2046 1412 888 746 922 1054 1398 1835 1376 897 773 500 688 1046 832 1008 1064 1082 1003 917 842 586 732 603 512 392 358 315 196 154 131 162 224 249 269 222 221 368 383 376 370 448 532 698 816 886 987 978 1042 989 770 806 902 932 812 738 744
2974 3033 2554 2238 1936 1910 1638 1459 943 799 1044 1216 1602 1491 982 733 687 469 697 767 692 523 746 802 979 1030 918 728 542 536 472 376 250 241 144 77 94 123 161 162 198 216 252 310 292 371 401 587 556 675 809 878 1018 1299 1432 1265 998 866 1006 1034 1034 1144 1072
3034 3109 2822 2241 1972 1890 1670 1640 1228 1218 1396 1580 1664 1410 1114 925 703 734 926 653 634 560 520 292 458 883 978 706 503 546 455 390 283 198 146 99 74 40 2 0 0 35 186 240 234 294 397 449 510 655 861 1109 1298 1451 1526 1515 1333 916 823 1013 1178 1073 1039
3096 3209 3104 2469 2242 2058 2053 2040 1880 1859 2034 2334 2104 1662 1360 1359 1278 986 878 662 516 572 662 598 456 572 904 784 496 451 401 384 377 177 18 1 4 0 0 0 0 2 31 141 144 186 451 527 691 845 1058 1362 1452 1508 1542 1455 1338 1202 1094 1190 1144 984 888
3122 3437 3418 3095 2611 2398 2563 2475 2484 2536 2443 2470 2309 1896 1861 2116 1588 1343 1230 856 346 352 564 797 747 708 618 470 376 403 468 400 240 78 29 13 1 0 0 0 0 2 16 50 102 244 378 490 791 1142 1458 1481 1512 1501 1518 1481 1455 1519 1513 1354 1163 1052 940
3352 3605 3682 3383 2910 2723 2699 2818 2968 2899 2606 2541 2375 2106 2311 2314 2054 1672 1409 1229 550 395 525 641 763 698 590 281 237 424 451 366 176 62 17 8 2 0 4 2 16 8 0 0 0 32 132 271 374 1116 1392 1405 1482 1517 1530 1650 1731 1749 1674 1394 1178 1081 962
3386 3632 3724 3272 3016 2866 2792 3127 3183 2942 2744 2537 2214 2259 2466 2436 2005 1646 1653 1665 883 693 752 933 1007 1017 631 288 129 303 445 237 106 55 21 18 12 9 0 1 0 0 2 0 0 1 30 170 353 650 1396 1588 1622 1560 1604 1699 1758 1828 1714 1515 1162 940 799
2700 3277 3466 3241 2982 2853 2896 3162 3122 3069 2859 2552 2316 2369 2414 2237 1866 1747 1992 1549 973 942 872 820 1097 1139 884 509 377 420 400 250 74 44 42 34 28 24 37 57 57 58 38 23 3 0 3 42 288 552 969 1254 1464 1578 1818 1880 1932 1884 1779 1522 1108 968 808
2612 2646 2934 2987 2983 2948 2970 2940 3094 3091 2868 2670 2518 2510 2401 1998 1807 1985 2120 1142 1157 950 925 1031 1196 1196 841 665 631 643 530 278 90 41 32 24 68 111 149 172 156 106 67 40 37 28 143 361 490 754 1033 1298 1546 1817 1915 1872 1844 1907 1738 1142 861 876 710
2318 2454 2476 2697 2836 2849 2926 2956 3134 3068 3001 2720 2575 2508 2348 2178 2418 2364 2048 1332 1237 1310 998 1180 1404 1338 1013 648 696 717 526 331 203 155 113 119 128 205 306 307 190 44 28 24 23 57 194 632 900 1018 1086 1045 1180 1628 1886 1904 1928 1646 759 278 627 665 764
2073 2162 2202 2420 2620 2702 2842 2930 3031 3117 3027 2904 2625 2715 2168 2316 2259 2214 1081 888 869 1088 1066 1196 1500 1406 1109 890 736 685 564 400 307 303 207 207 239 387 577 561 208 72 51 72 195 398 689 954 947 852 969 1104 1290 1558 1768 1868 1933 1351 545 397 345 706 742
1784 2043 2125 2260 2342 2571 2730 2783 2960 2961 2922 2828 2712 2395 2136 2311 2163 2027 1126 906 814 692 922 1236 1355 1161 1184 975 903 873 701 476 398 368 268 275 430 586 716 809 315 146 118 112 191 358 442 564 722 950 1216 1337 1343 1401 1615 1712 1645 1304 694 483 484 472 812
1654 1959 2063 2162 2270 2449 2570 2607 2876 2917 2589 2500 2208 2152 2005 2282 1932 1785 1348 1215 1075 942 942 1314 1162 1042 1076 992 916 932 832 664 447 336 304 421 586 722 910 957 431 194 118 90 136 246 507 605 626 913 1102 1287 1272 1196 1158 1290 1477 1354 996 544 463 533 559
1494 1792 1980 2014 2171 2316 2454 2579 2722 2600 2474 2166 2042 1634 1440 1342 1524 1564 1367 1182 1126 1027 1313 1314 996 893 962 1059 1058 986 884 726 502 449 444 569 750 908 1107 929 296 188 87 66 188 329 474 575 654 957 1115 910 926 1039 1205 1370 978 1238 1086 690 635 686 519
1464 1735 1888 1932 2054 2134 2374 2572 2806 2294 1982 2015 1206 1118 1569 1793 2032 1747 1288 999 868 1132 1612 1327 1029 964 1031 1027 1052 1064 939 752 573 643 690 753 965 1235 1068 574 225 244 185 156 165 264 422 584 669 805 872 770 641 708 805 708 914 1150 1035 712 687 686 547
1404 1508 1720 1778 2022 2116 2491 2572 2332 2244 2244 1599 1374 1425 1521 1966 1430 912 1018 848 896 1364 1194 1082 980 888 1078 1008 995 949 856 724 648 760 952 1140 1247 1235 828 268 152 238 324 494 414 423 525 547 707 947 1147 975 784 661 674 547 964 1316 1249 846 600 715 652
1010 1355 1532 1749 1858 2176 2748 2492 2334 2270 2590 2344 2146 1965 1182 1320 1153 991 918 857 914 1044 888 660 886 1001 981 1071 906 742 662 657 663 699 757 881 970 1072 695 158 155 208 341 545 445 316 240 254 254 503 888 960 872 560 686 905 1450 1267 1300 1103 754 666 938
976 1248 1423 1602 1951 2521 2721 2434 2296 2706 2133 2284 2325 1710 1594 1454 1164 1272 1246 990 902 764 625 630 881 922 894 920 796 716 720 754 702 661 614 768 884 808 511 132 140 317 544 498 421 310 239 178 234 503 698 640 624 570 790 510 477 1118 1236 1115 964 826 1167
1060 1230 1554 1830 2053 2541 2402 2484 2534 2337 2550 2612 2290 1908 2064 2112 1358 1408 1528 1288 995 695 482 650 834 791 802 858 702 753 818 734 672 725 698 741 664 579 405 293 376 431 882 667 290 342 572 296 387 540 788 569 336 334 253 424 372 752 983 1098 1127 1012 1482
1397 1537 1815 2040 2180 2569 2661 2676 2686 2881 2749 2556 2418 2331 2476 2449 1829 1468 1334 1108 1068 739 590 737 930 811 726 632 692 889 966 833 865 920 758 648 699 660 734 1079 775 735 850 566 259 295 395 484 497 482 494 512 566 395 350 545 717 712 934 1154 1339 1238 1270
1454 1801 2022 1936 1916 1898 2466 2717 2793 2671 2606 2532 2774 2470 2628 2538 2272 1848 1703 1539 1362 962 798 1005 1044 887 914 1082 1113 1156 1179 969 806 824 688 694 778 1080 1121 851 567 497 630 474 476 661 752 763 696 594 672 624 630 773 793 660 685 472 646 1066 1117 1077 881
1479 1501 1673 1604 1848 1984 2492 2345 2518 2626 2354 2727 2905 2835 3017 3202 2982 2628 2333 2036 1817 1484 996 1301 1165 1326 1815 1688 1528 1301 1057 928 822 831 790 812 1564 1549 1122 784 664 454 490 560 770 866 794 825 731 670 606 652 481 626 880 785 752 895 718 821 891 742 601
1630 1642 1658 1828 1971 1933 1931 2248 2234 2286 2327 2057 2370 2913 3117 3078 3001 2819 2632 2506 2432 1719 1326 1689 2014 2594 2242 1643 1302 1170 1060 923 864 952 1154 1456 1540 1109 900 985 754 561 606 729 863 789 797 873 882 819 617 576 596 593 889 787 798 1105 1207 1020 544 77 0
1829 1752 1700 1366 1370 1735 1476 2016 2349 2339 2284 1582 1877 2675 2804 2695 2822 2774 2656 2697 2498 2437 2275 2846 3036 2418 1594 1203 1090 876 657 722 988 1316 1344 1332 1158 1114 958 990 978 731 860 825 760 724 710 835 938 896 737 714 698 795 890 528 677 596 582 1126 236 0 0
1812 1757 1571 1407 986 1568 1574 1636 2161 2314 2431 2745 2967 2807 2662 2510 2536 2515 2466 2560 2701 3011 3168 2940 2244 1492 1176 1022 881 784 777 845 837 978 1030 1159 1062 1053 882 725 704 688 848 763 638 770 816 883 765 677 771 723 588 730 679 934 864 614 759 516 418 37 293
2102 1914 1934 2038 2138 1866 1958 2107 2338 2485 2694 2819 2719 2585 2411 2430 2242 2247 2379 2475 2759 3156 2560 2029 1528 1169 978 877 773 795 830 747 632 880 1099 1044 733 715 698 704 723 605 636 708 624 712 798 866 910 846 894 899 881 812 628 495 595 1436 1268 304 54 78 26
2113 1930 1860 1710 2123 2027 1717 1716 1518 1630 1662 1752 2293 2214 1766 2014 2062 2091 2100 2341 2745 2108 1802 1438 1207 1025 978 846 690 928 798 564 310 245 527 939 846 639 568 589 556 520 607 560 502 600 724 784 889 888 953 1028 734 720 832 833 851 525 172 15 2 23 3
2091 1858 2015 2406 2410 1722 1665 1672 1556 1521 1832 2134 2372 2368 2009 1515 1742 2010 2118 2116 1208 1222 1477 1241 947 641 967 940 747 650 619 577 184 198 257 422 500 361 343 610 642 583 548 608 772 867 856 909 888 850 954 732 419 285 379 261 212 83 0 0 0 0 0
2061 2375 2180 2224 2036 2234 2645 2759 2566 2492 2051 2315 1950 1681 1711 1765 1559 1629 2073 1470 1050 1527 839 864 841 746 911 707 555 567 449 276 392 446 407 413 473 441 416 1038 1033 748 903 897 392 348 440 545 543 634 358 262 449 308 248 71 1 2 0 0 0 0 0
2164 2122 2075 2236 2542 2567 2366 2160 2096 1998 1905 1947 1543 1511 1598 1692 1617 1196 1004 1102 1345 1248 912 1212 629 560 527 558 450 306 303 390 311 442 463 330 197 394 548 144 0 0 652 356 188 115 0 0 71 0 8 90 100 2 0 1 0 0 0 0 0 0 0
1698 1662 1821 1868 2106 1944 1927 1770 1556 1802 1708 1416 1316 1356 1235 1277 1142 1216 934 1178 1160 1008 1198 1158 790 562 410 418 346 288 480 372 329 385 622 543 308 198 292 641 0 0 16 24 0 0 0 0 0 0 0 0 1 1 0 0 0 0 0 0 0 0 0
1577 1463 1249 1195 1326 1522 1406 1362 1484 1463 1416 1280 1206 1112 1174 1008 1103 1124 898 1089 1053 930 1212 922 855 687 527 511 510 1052 623 310 274 294 218 328 440 508 492 437 0 11 48 30 0 0 0 0 0 0 0 0 0 0 0 0 0 0 0 0 0 0 0

ECMWFFLT1_con_mucape_009.txt.gz
CAPE
962 852 1539 1683 1772 1830 2075 2392 2798 3034 3512 3110 2432 1446 1530 1181 1398 1554 1388 1392 1401 1635 1332 833 712 268 205 310 354 311 273 426 557 482 420 369 392 351 326 215 158 163 245 403 413 510 513 536 598 518 511 460 416 402 416 502 540 462 396 408 406 464 628
1296 854 1396 1790 2016 1948 2232 2503 3450 3144 3571 2850 2113 1362 1398 1280 1686 1475 1410 1448 1801 1397 1015 756 515 226 222 305 346 312 316 506 537 447 312 375 315 342 265 221 241 375 430 495 550 527 528 508 477 530 526 495 409 399 500 354 346 360 285 344 425 634 772
1412 1172 1548 1922 2090 1804 1447 3132 3409 3541 3342 2559 1662 1422 1300 1564 1857 1429 1426 1465 1622 1192 889 682 296 371 301 310 336 410 612 500 488 524 504 369 294 92 104 146 394 497 519 507 464 360 380 402 438 518 528 505 477 560 562 340 274 266 272 299 398 463 714
1737 1595 1648 1818 2208 2390 2787 2924 2719 3448 3139 2394 1429 1296 1457 1920 1916 1448 1408 1539 1561 1122 996 755 499 496 550 439 477 548 598 586 431 323 309 285 211 186 125 242 372 374 419 378 323 335 379 412 438 390 411 459 470 393 400 354 251 214 276 306 368 420 532
1536 1429 1477 1952 2262 2416 1990 2639 3337 3504 3057 2121 1347 1420 1790 2169 1826 1434 1427 1497 1332 1243 1086 919 707 635 654 509 538 544 594 596 613 497 350 324 201 95 180 233 226 398 357 343 313 386 462 439 371 380 381 408 354 189 193 204 166 198 188 318 500 387 293
1536 1814 1703 2038 2320 1976 2026 2731 2748 3347 2682 1690 1282 1358 2025 1980 1270 1031 1306 1372 1271 1224 1186 1093 928 874 733 762 536 473 418 541 357 394 303 289 321 210 201 182 208 300 327 307 260 260 277 368 392 384 461 328 244 341 320 342 370 286 285 438 676 585 459
1652 2061 2060 1971 2001 2522 3207 3324 3041 2632 2206 1307 1307 1449 1744 1465 935 732 1076 1205 1094 1332 1216 1095 1025 932 859 752 842 636 714 640 606 566 506 432 350 261 246 276 228 211 284 311 335 318 282 341 417 459 522 536 677 677 869 758 845 746 524 583 606 651 774
1698 2181 2516 2426 2531 2366 2185 2972 2736 2320 1594 1170 1384 1291 1154 1166 811 683 958 1006 928 935 958 837 1102 1112 1156 881 580 732 798 663 449 498 508 416 331 274 206 188 126 248 311 236 250 249 230 255 294 320 410 518 555 770 1007 1064 966 909 646 533 530 599 831
1752 2530 2706 2530 2413 1704 1728 2639 2520 1766 1254 1161 1440 1435 1193 1093 856 710 919 1005 801 642 775 666 1094 1366 1344 1168 834 678 577 525 463 469 428 352 229 141 144 35 12 2 26 150 139 166 192 174 217 401 599 729 878 1093 1336 1272 1273 1224 1236 1060 955 1254 1010
1835 3152 3088 2465 1710 1212 1406 911 1543 1354 1094 1346 1622 1650 1325 1173 1035 800 746 698 641 459 504 359 284 766 1332 1287 965 618 596 643 548 374 262 171 140 121 101 2 1 15 21 12 2 7 110 174 230 308 355 531 829 1301 1698 1514 1549 1509 1376 1094 1134 1241 1254
2519 3680 3765 2462 1821 1906 1931 1677 1284 1540 1536 1868 2009 1796 1633 1318 1139 884 456 392 288 403 454 444 332 327 736 1170 1002 749 680 600 499 399 414 233 48 16 9 0 0 1 0 12 65 113 33 58 88 150 222 268 1163 1700 1748 1596 1267 1362 1344 1134 1047 1096 1204
3146 3889 3954 3643 2472 1532 1443 1853 1678 1760 1760 2068 2109 2005 1821 1710 1256 956 516 492 388 324 483 643 685 585 658 688 526 497 549 610 535 349 218 147 82 58 36 6 5 4 20 2 2 0 0 0 2 30 91 158 403 1678 1878 1785 1782 1732 1634 1340 1035 1090 1236
2854 3978 4195 3856 3274 2495 2473 2366 1856 1838 2056 2145 2252 2138 1793 1596 1380 1106 1107 562 458 278 247 442 597 795 734 605 194 275 412 454 452 392 180 136 142 165 64 8 0 8 52 13 7 6 1 0 1 9 62 140 245 941 1382 1497 1623 1650 1615 1668 1682 1560 1416
2725 3726 4235 4097 3522 2994 2814 2568 2313 2387 2478 2602 2688 2144 1974 2100 1832 1458 1374 626 438 221 249 486 821 1054 976 738 355 221 192 290 286 253 184 111 127 109 97 109 97 123 154 165 88 9 5 4 5 6 19 124 362 831 1230 1286 1198 1194 1302 1337 1603 1539 1331
2464 3059 4097 4253 4018 3660 3374 3092 3045 3302 3398 3299 2820 2396 2396 2324 2092 1894 1640 656 335 311 412 667 1050 1203 1208 953 650 464 376 414 345 267 171 145 201 238 296 232 218 219 207 216 155 50 24 45 12 60 221 380 813 1208 1418 1181 828 1165 1307 1479 1620 1561 1210
1710 2027 3033 4156 4325 4047 3830 3808 3864 3874 3605 3266 2746 2442 2370 2382 2283 1891 1073 479 386 617 629 1050 1266 1448 1204 779 728 663 632 693 640 409 242 226 287 381 336 250 294 458 417 276 138 130 98 199 250 235 370 610 708 986 1148 1040 981 1322 925 1041 1315 1070 868
1062 1778 2268 3519 4406 4212 4121 4064 4325 4240 3707 3036 2676 2677 2665 2243 2142 1392 702 440 351 744 872 1141 1510 1513 1350 931 743 637 730 782 732 678 567 496 449 435 505 555 723 796 682 462 274 253 217 216 222 213 230 520 825 890 1010 991 1099 699 1082 1224 1384 1021 837
712 1363 1904 2502 3572 4260 4201 4097 4403 4248 3889 3184 2769 2734 2406 2324 1843 878 458 353 378 669 994 1176 1322 1486 1498 1206 920 726 610 673 698 634 646 614 572 584 587 693 826 1037 886 467 301 232 113 120 148 293 410 746 928 1113 1044 1053 940 916 991 1210 1222 1067 826
622 748 1545 2406 3152 3920 4127 4108 4302 4379 4058 3348 3015 2875 2477 1736 1039 500 450 512 614 838 1202 1204 926 1214 1452 1419 987 786 729 788 705 685 675 670 664 644 674 856 940 1347 1096 591 269 163 175 238 274 364 506 718 1002 1278 1119 846 784 1039 1024 1081 1117 1002 828
1048 1108 1712 2389 2842 3511 3961 4037 4043 4228 4079 3721 3461 2737 2174 1368 1162 809 737 540 849 1000 1109 1062 873 1116 1318 1318 984 737 656 753 798 755 730 740 773 783 845 983 1220 1426 841 420 289 174 182 238 517 704 598 763 892 594 617 526 569 420 712 844 890 910 864
1572 1464 1842 2486 2820 3103 3536 3805 3926 3830 3876 3511 3120 2618 1782 1513 1414 823 727 892 1035 1112 1244 906 1040 1216 1360 1192 967 771 673 724 706 787 802 820 860 952 1020 1400 1628 1220 594 310 243 304 553 678 668 557 479 897 663 798 813 636 121 12 325 513 689 910 827
1349 1721 2080 2472 2910 3044 3248 3448 3680 3598 3706 3332 3071 2046 1690 1660 1315 977 1008 1063 1165 1399 1337 1257 1272 1380 1342 977 858 800 784 759 766 824 872 848 951 1054 1225 1636 1801 989 534 364 340 474 422 283 215 489 399 489 769 850 840 697 512 226 152 450 656 844 864
1134 1821 2174 2522 2798 2942 3233 3339 3512 3097 3478 3079 2230 1855 1754 1487 973 1116 1165 1129 1084 1394 1246 1225 1413 1444 1258 1038 826 781 785 853 834 816 788 815 816 741 754 1103 1508 830 401 339 518 500 326 395 383 502 489 572 670 609 572 545 667 479 86 282 712 890 1278
1392 1840 2274 2451 2719 2907 3096 3234 3392 3321 3184 2308 1926 1739 1563 1158 1306 1383 1346 1263 1172 1216 1262 1194 1432 1462 1306 1061 960 841 868 900 854 876 830 719 547 588 666 847 1087 631 389 533 650 331 243 460 396 428 480 560 714 596 456 325 334 335 362 0 0 590 727
1318 1812 2370 2514 2600 3009 3190 3558 3558 3193 2675 1901 1654 1462 1396 1466 1231 1202 1298 1389 1218 1151 1149 1350 1381 1271 1172 1246 1064 886 880 922 990 972 864 702 554 513 580 690 764 649 671 785 628 470 444 413 426 463 565 539 576 505 554 469 506 562 215 0 0 0 536
1869 2266 2654 2591 2905 3382 3529 3347 3276 2921 2220 1685 1503 1544 1731 1400 1268 1306 1354 1329 1281 1214 1222 1357 1420 1276 1180 1236 1103 922 933 986 1086 1042 876 666 410 402 564 648 679 794 788 898 752 414 232 326 429 522 684 658 608 544 596 866 942 777 454 3 0 146 480
2418 2409 2622 2555 3189 3370 3476 3273 3234 2698 2172 1990 2014 1903 1708 1388 1440 1491 1625 1774 1807 1637 1390 1322 1330 1291 1306 1307 1058 910 986 1095 1146 1102 930 760 638 443 479 983 1422 1321 973 730 584 442 522 709 791 772 860 742 669 606 823 794 616 598 288 1 0 156 608
2488 2433 2450 2743 3288 3374 3398 3107 3208 2358 1626 1751 2506 2369 1751 1672 1908 2037 1992 1957 2060 2046 1687 1505 1388 1277 1330 1306 1031 860 1018 1206 1267 1158 909 805 740 714 760 1102 1296 1086 803 696 566 648 961 1085 1008 855 827 854 785 775 971 1055 905 947 1110 485 457 607 500
2648 2543 2618 3145 3099 3251 2905 2828 2679 1801 1558 1965 1996 1708 1469 1585 1952 2378 2486 2248 2242 2248 2049 1739 1435 1394 1436 1311 1037 1248 1379 1294 1122 1119 1012 840 677 845 1055 1161 1366 1320 1022 911 845 876 933 946 961 906 954 886 856 834 958 1298 1224 877 841 675 761 683 456
2425 2334 2654 2340 2338 2738 2370 2459 2500 2251 2001 1199 1097 1213 1464 1863 2168 2716 3017 2722 2638 2602 2435 1964 1616 1578 1483 1381 1715 1638 1486 1172 1232 1148 1132 774 913 1214 1352 1179 1061 1249 1288 1225 1049 942 778 845 894 868 851 901 908 876 866 1094 1380 1380 655 885 739 685 42
2500 2490 1922 1359 1911 2209 2317 2697 2682 2118 1648 1340 1310 1320 1718 2567 3190 3167 3401 3360 3130 2854 2667 2292 1934 1844 2225 2513 2287 1859 1520 1362 1158 1006 742 1089 1035 1123 1098 1062 1212 1208 1214 1134 1119 1026 910 866 984 960 999 824 903 1128 1023 816 878 752 819 106 262 22 0
1769 1366 1122 1204 1566 1882 1494 1473 2034 2258 2053 2227 2914 3580 3516 3578 3346 3272 3345 3175 3108 2905 2822 2932 2956 2877 2713 2388 1854 1624 1426 1300 978 743 835 939 938 799 680 666 909 909 952 1007 1056 1009 836 907 839 857 856 751 812 741 924 805 610 871 1065 446 198 86 50
1960 1878 2000 2420 2426 1948 1790 1442 1551 1714 2246 2924 2956 2779 2408 3005 2893 2771 2694 2528 2445 2591 2953 3150 2895 2753 2346 1895 1482 1256 1219 1062 573 549 642 881 784 706 644 671 769 742 784 898 821 736 639 517 597 532 483 1091 53 296 927 989 881 765 286 144 16 20 0
2355 2274 2531 2742 2193 1941 1755 1617 1328 1307 1140 1452 2293 2620 2463 2009 1780 1888 2172 1741 1736 1786 2365 2667 2506 2080 1748 1453 1159 1060 1118 903 724 374 194 164 212 532 734 556 285 322 719 1026 697 599 664 749 639 604 372 635 294 426 736 680 654 273 0 0 0 0 0
2783 2996 2604 1987 1642 1814 1976 1773 2040 2663 2599 2788 2237 2006 1881 1949 1226 716 1081 1512 1486 1620 1774 1894 1856 1582 1432 1230 1136 990 951 664 706 770 573 750 745 950 574 678 1134 1269 971 176 31 52 269 350 477 230 206 273 575 395 489 466 194 0 0 0 0 0 0
2295 1950 2013 2190 2706 2994 3002 2884 2646 2532 2450 1970 2012 2022 2106 1976 1882 1174 351 344 1084 1444 1725 1474 1203 972 709 934 634 532 758 882 474 674 442 540 652 511 441 0 0 0 415 126 0 0 0 0 0 0 0 217 106 19 17 0 0 0 0 0 0 0 0
2154 2160 2127 2249 2470 2316 2232 2270 2092 2076 2054 1894 1818 1761 1507 1706 1309 1305 751 1128 1177 1329 1329 1271 1422 908 491 542 704 685 738 704 754 628 572 588 677 440 548 45 0 0 0 0 0 0 0 0 0 0 0 0 14 0 0 0 0 0 0 0 0 0 0
1581 1483 1642 1911 2203 2058 1838 1854 1886 1896 1796 1646 1586 1402 1452 1001 1178 1004 734 1050 1165 1100 1183 1280 1274 965 786 770 652 1594 932 728 764 628 440 459 428 424 598 918 458 0 0 0 0 0 0 0 0 0 0 0 0 0 0 0 0 0 0 0 0 0 0

ECMWFFLT1_con_mucape_015.txt.gz
CAPE
297 369 217 384 330 328 359 550 1008 1242 1635 2761 2836 2886 2979 2996 2944 2893 2758 2518 2084 1510 1048 866 874 834 714 651 530 193 233 143 122 270 573 150 216 292 182 332 213 188 138 409 496 384 520 624 450 606 868 750 582 783 846 785 702 771 590 717 611 739 654
231 452 277 239 387 483 302 495 836 1015 1808 2696 2915 2943 2949 2927 2842 2748 2516 2077 1527 1180 997 816 918 981 749 586 711 244 115 225 341 776 348 716 654 412 68 82 68 193 274 222 436 774 746 441 433 694 595 666 573 608 651 724 784 678 647 493 466 454 688
90 218 351 344 455 724 428 586 855 1280 2233 2702 2880 2927 2895 2815 2729 2586 2185 1660 1344 1113 963 847 882 1046 717 464 312 232 89 78 474 414 121 98 327 152 129 134 225 15 38 342 444 207 482 678 499 390 454 565 659 690 722 710 614 672 657 631 617 581 506
198 194 436 422 434 887 774 790 1214 1645 2440 2686 2853 2882 2781 2733 2579 2361 1970 1481 1290 1062 934 928 957 910 620 578 193 280 168 217 328 340 164 72 88 493 286 78 58 7 82 199 474 505 297 163 292 468 1227 640 569 668 708 574 515 522 567 579 468 477 497
61 368 556 578 443 970 983 1030 1497 1893 2485 2684 2831 2822 2644 2617 2438 2191 1748 1448 1258 990 1006 886 967 646 288 350 338 362 174 212 305 428 408 332 428 266 8 114 119 226 276 329 226 358 424 362 412 454 412 509 510 522 521 612 562 602 592 511 385 493 651
221 400 625 600 576 686 1084 1164 1676 1894 2362 2642 2809 2702 2520 2416 2271 2001 1558 1429 1213 1013 1106 870 752 346 222 206 398 423 435 579 215 271 128 250 356 164 22 0 0 0 122 53 249 269 334 353 251 250 284 315 303 281 388 545 679 715 763 719 585 698 695
386 385 755 666 623 603 1027 1210 1624 1866 2241 2477 2776 2589 2357 2234 2082 1875 1551 1359 1185 1176 1110 817 573 158 163 233 284 367 625 471 564 337 356 351 238 220 122 136 325 71 4 56 132 237 206 91 168 270 304 318 414 414 469 592 613 866 1034 990 855 764 795
624 923 1174 706 676 634 784 1210 1337 1632 2059 2424 2704 2552 2370 2220 2079 1826 1460 1151 1321 1208 1050 705 250 339 186 260 389 328 463 567 316 364 236 211 232 218 170 115 114 104 145 64 23 197 166 173 254 386 354 316 290 396 510 490 609 859 1033 993 1000 1004 1005
796 1029 1212 887 672 540 549 1032 1322 1520 2178 2454 2562 2515 2353 2119 1865 1636 1450 1220 1355 1164 929 640 331 522 319 268 359 484 235 383 301 217 328 218 343 273 236 225 129 112 172 169 118 223 211 211 326 378 286 290 292 244 364 578 753 837 968 973 1076 1149 1175
769 761 992 973 852 980 968 1025 1163 1566 2442 2663 2513 2378 2262 2085 1892 1757 1624 1238 1275 1098 830 598 501 594 526 400 338 545 417 443 464 399 283 406 394 357 236 143 52 84 80 24 5 6 146 325 272 245 272 239 281 297 370 487 604 927 1067 865 700 767 798
1721 1475 922 1003 849 973 1269 1553 1664 1701 2146 2677 2702 2548 2454 2334 2109 1817 1492 1204 1054 1050 724 534 665 620 606 663 608 591 650 565 676 424 389 302 212 183 82 18 0 9 27 54 46 38 15 94 234 106 130 233 255 302 372 466 730 1053 916 766 766 767 857
2131 1394 1200 943 1732 957 818 1822 2096 2167 2089 2187 2432 2485 2413 2267 2037 1713 1555 1280 1005 916 679 527 733 677 626 678 730 703 623 619 590 356 236 234 165 90 26 1 3 0 4 5 14 4 1 0 28 160 77 289 529 528 521 526 912 927 753 637 554 719 993
1694 1500 1606 764 2205 1558 1454 2019 2270 2319 2300 2282 2242 2238 2152 2026 1862 1782 1547 1201 988 748 694 691 757 801 810 671 611 612 526 546 446 296 266 295 159 81 64 41 0 0 42 6 9 10 2 1 0 1 78 242 282 245 447 576 889 807 803 783 786 812 782
2178 1607 1711 1220 2837 2143 2046 2285 2397 2464 2386 2298 2348 2354 2242 2079 1964 1871 1661 1353 974 744 641 820 793 887 989 861 815 695 528 555 417 321 290 304 311 211 79 19 40 76 113 196 0 2 9 22 6 2 110 92 106 81 131 159 1098 1159 1051 890 715 628 592
1838 1716 1833 1944 2786 2463 2316 2486 2526 2554 2474 2412 2339 2279 2203 2136 2082 1903 1784 1686 1437 1190 892 908 990 1053 1095 1018 1024 842 668 502 282 281 471 476 333 258 158 92 77 103 136 30 74 222 129 45 50 68 72 85 92 96 219 792 923 841 580 598 926 930 676
1602 1485 1642 1629 2268 2855 2459 2575 2754 2840 2628 2457 2402 2368 2324 2236 2069 1934 1886 1796 1483 1102 723 964 1140 1227 1215 1069 1107 982 808 559 616 591 477 407 227 44 22 17 42 129 150 172 165 129 267 316 187 209 235 84 78 360 594 663 578 647 656 982 1045 834 661
144 817 1634 1734 2004 2391 2675 2621 2740 2909 2868 2502 2194 2141 2114 2110 2045 1961 1811 1600 1298 931 698 984 1094 1261 1062 885 1008 1016 812 654 632 587 476 283 159 154 146 129 226 241 174 194 285 336 380 533 514 249 65 10 16 5 182 387 404 524 745 798 555 386 355
740 835 1347 1724 2314 2517 2313 2544 2606 2780 2864 2740 2503 2330 2258 2188 2067 1807 1419 1182 825 673 648 644 579 508 398 322 320 211 334 211 240 346 300 247 180 160 148 198 254 276 268 322 352 406 525 549 518 442 427 224 70 96 432 576 643 480 191 10 4 87 261
266 335 370 1803 2144 2629 2588 2254 2313 2441 2473 2627 2564 2383 2233 2034 1848 1665 1237 936 426 486 573 589 569 506 383 390 445 668 334 297 410 333 340 283 195 180 237 248 296 327 378 482 572 682 711 704 675 652 496 340 322 386 841 830 822 588 410 0 0 0 13
104 180 377 477 2241 2847 2966 2516 2376 2519 2452 2248 2362 2387 2247 2092 1832 1456 952 653 384 375 392 396 668 416 365 478 841 730 563 528 458 473 424 436 383 357 334 393 391 415 479 567 720 811 841 864 854 666 375 373 351 594 749 704 763 769 569 258 0 0 0
612 480 437 490 997 2398 3232 3064 2660 2664 2647 2388 2085 2066 1983 1797 1709 1620 1366 989 655 550 584 395 370 375 780 970 1097 892 701 642 565 578 583 596 575 556 548 532 560 623 688 746 769 862 910 803 679 645 363 472 828 774 728 798 820 712 642 539 0 0 0
189 466 518 568 493 692 2039 3030 2810 2670 2637 2384 2167 2092 1919 1808 1649 1530 1432 1227 865 523 472 435 358 866 1090 1019 938 982 860 723 674 642 696 731 735 716 695 710 708 709 740 793 787 874 926 837 738 559 466 331 527 725 733 795 951 884 670 555 0 0 0
42 184 271 522 929 1802 3537 3252 2761 2844 2669 2364 2126 2114 1885 1832 1626 1546 1513 1450 1213 878 630 373 400 1206 1148 862 1011 1131 920 736 685 667 712 784 813 807 818 806 764 739 810 970 1057 1069 1032 976 939 739 418 392 328 305 268 241 255 219 157 212 221 23 0
234 1364 1745 2160 2662 4108 4452 4715 3593 3024 2848 2558 2618 2810 2726 2434 2101 1654 1386 1526 1442 1110 619 432 385 988 1199 1220 1408 1400 1182 928 747 707 768 857 886 880 851 820 843 883 1078 1162 1204 1199 1126 1060 567 318 74 215 27 56 11 14 0 0 0 0 0 141 220
1706 1832 2450 2514 2890 3574 3962 4330 4151 3763 3553 3484 3374 3257 3167 2968 2532 1733 1758 1694 1589 1338 814 502 551 1069 1379 1466 1532 1563 1450 1202 986 883 871 904 924 936 903 898 928 980 1109 1286 1215 1154 967 633 373 0 31 38 46 169 96 69 66 0 0 0 0 292 302
1916 2342 2412 2565 3117 3716 3889 3949 3962 3806 3709 3672 3676 3601 3546 3391 3100 2386 1793 1808 1817 1285 989 832 724 1365 1538 1466 1481 1599 1580 1404 1181 981 898 888 906 928 950 917 917 907 809 1004 1180 999 757 500 423 283 226 204 60 134 98 192 159 155 0 0 0 12 236
1722 2112 2171 2340 3014 3616 3706 3627 3590 3577 3576 3644 3649 3627 3545 3463 3161 2712 2161 1927 1725 1501 1261 898 790 1317 1605 1476 1549 1570 1554 1456 1304 1156 946 930 889 802 754 848 749 610 464 768 546 542 476 430 400 338 9 77 282 341 167 252 372 218 0 0 0 0 0
1126 1405 2031 2948 3165 3185 3571 3339 3669 3487 3563 3610 3626 3569 3479 3279 2835 2286 2098 1988 1804 1392 1047 708 1225 1554 1503 1533 1575 1528 1446 1364 1276 1108 965 772 614 472 556 949 1006 995 562 383 466 485 440 493 439 345 34 63 277 372 152 234 588 493 351 235 364 0 12
1041 795 976 2810 3279 3570 3440 3254 3410 3109 3380 3676 3546 3470 3215 2475 1930 1716 1730 1709 1391 889 850 1330 1714 1737 1715 1638 1590 1527 1410 1312 1139 1002 758 663 519 587 810 718 660 662 554 445 242 203 336 362 231 157 132 260 208 272 56 119 265 263 380 55 258 0 60
2188 2350 2646 3004 3169 3261 3208 3167 2486 1892 2505 2842 3249 2702 2035 1572 1364 1314 1238 1148 1542 1791 2166 2202 2092 1942 2028 1891 1782 1457 1372 1267 1149 983 733 677 652 505 493 516 471 516 301 244 120 7 1 14 105 180 272 213 75 99 122 104 109 163 223 460 266 162 141
1993 1691 2098 2683 2738 3028 3116 2854 1548 1332 1389 2114 1786 1496 1557 1404 1219 1985 2344 2546 2341 2495 2424 2502 2556 2560 2499 2260 1758 1484 1163 1056 978 915 860 789 715 768 743 642 508 416 346 306 289 83 50 36 174 219 241 280 147 55 60 347 570 647 503 105 299 241 189
1469 1169 1448 1858 2133 2461 2336 1719 1041 952 986 1000 1169 1252 1390 1770 2097 2397 2603 3001 2736 2548 2502 2346 2052 1843 1856 1850 1777 1723 1647 1498 1441 1334 1226 960 865 776 689 673 702 540 376 317 211 191 152 263 338 484 402 265 363 221 242 654 537 41 0 25 216 222 180
1526 1547 1382 1582 1623 1757 1423 1395 803 725 608 974 2238 2086 2146 2597 2592 2612 2693 2682 2738 2588 2608 2610 2459 2362 2170 2021 1868 1714 1601 1521 1500 1444 1346 1250 1123 1098 1084 846 393 360 388 268 320 208 147 218 343 361 474 549 555 376 346 413 98 0 0 1 113 112 0
1317 1019 1187 1220 1005 1164 1074 1108 765 804 1000 1238 2163 2343 2594 2654 2621 2620 2579 2566 2555 2523 2700 2732 2722 2598 2448 2354 2316 2299 2269 2276 2097 1815 1439 1007 806 636 607 830 690 480 207 182 131 236 313 196 421 333 380 412 241 373 453 450 0 0 0 0 0 0 0
1351 1061 1074 988 1014 1120 922 701 758 1002 1126 1416 1954 2132 1901 2024 2329 2246 1933 1857 1665 1626 2378 2754 2785 2807 2863 2698 2323 2078 1811 1520 1427 986 876 756 552 483 589 610 392 265 7 0 0 325 429 260 0 0 0 72 7 136 528 66 0 0 0 0 0 0 0
1156 1122 1095 1103 1371 1296 1250 649 508 644 701 938 1307 1571 1265 913 927 1374 1320 1257 1254 1290 2253 2707 2450 2338 1959 1602 1691 1835 1662 1281 1035 932 792 644 505 382 292 170 8 0 0 210 106 97 0 0 0 0 0 0 0 0 0 0 0 0 0 0 0 0 0
1332 1036 1090 1325 1463 1424 1365 1098 772 666 732 564 387 646 484 304 596 800 1079 1252 1369 1780 2085 2149 1859 1667 1468 1130 931 949 952 904 826 715 602 528 385 31 0 0 0 0 9 0 0 0 0 0 0 0 0 0 0 0 0 0 0 0 0 0 0 0 0
1531 1536 1808 2195 1798 1316 1075 820 771 878 914 498 440 366 466 460 610 531 655 795 929 1047 1194 1456 1339 1115 953 771 642 753 780 504 516 601 470 413 143 0 108 43 0 0 0 70 0 212 209 0 0 0 0 0 0 0 0 0 0 0 0 0 0 0 0

ECMWFFLT1_con_mucape_021.txt.gz
CAPE
407 608 839 945 1045 1220 1382 1524 1683 1837 1925 1994 2056 2221 2404 2484 2571 2633 2694 2738 2774 2684 2551 2502 2595 2598 2525 2524 2647 2771 2315 1063 618 0 0 0 0 0 0 0 0 0 0 0 0 0 2 6 11 20 50 163 94 90 50 244 190 156 31 54 46 54 0
326 510 802 967 1054 1170 1342 1503 1646 1780 1895 1957 2030 2178 2344 2455 2547 2626 2676 2712 2735 2684 2614 2593 2598 2632 2628 2656 2813 2685 1723 738 0 10 0 0 0 0 0 0 0 0 0 0 0 0 2 5 20 3 55 291 124 2 11 77 96 22 18 1 3 1 23
244 393 662 929 1048 1124 1251 1395 1553 1696 1795 1880 1978 2116 2271 2393 2489 2566 2607 2608 2633 2624 2587 2613 2655 2673 2716 2795 2842 2478 1430 364 0 0 0 0 0 0 0 0 0 0 0 0 0 0 6 1 22 0 29 74 84 8 0 0 12 6 0 0 8 28 0
166 333 554 820 1005 1099 1169 1274 1419 1594 1721 1789 1865 2024 2214 2346 2436 2508 2534 2527 2555 2571 2559 2553 2568 2615 2703 2802 2809 2403 1437 855 126 0 0 0 0 0 0 0 0 0 0 0 0 0 39 37 10 2 544 2 1 0 0 0 0 0 0 0 0 0 0
158 288 499 720 948 1078 1148 1198 1296 1443 1608 1705 1770 1890 2076 2248 2356 2445 2502 2526 2542 2550 2525 2491 2504 2509 2614 2704 2729 2290 1568 894 199 0 0 0 0 0 0 0 0 0 0 0 0 13 44 32 0 0 19 7 0 0 0 0 0 0 0 0 0 0 0
26 227 464 668 847 1021 1121 1201 1262 1347 1487 1657 1735 1783 1907 2073 2218 2356 2467 2534 2564 2554 2506 2463 2452 2482 2533 2648 2574 2073 1357 654 0 0 0 0 0 0 0 0 0 0 0 0 0 0 0 0 0 0 0 0 0 0 0 0 0 0 0 0 0 0 0
28 148 406 626 767 895 1050 1142 1232 1307 1397 1547 1680 1681 1709 1865 2054 2243 2386 2484 2548 2535 2476 2411 2398 2415 2467 2539 2400 1901 1263 563 0 0 0 0 0 0 0 0 0 0 0 0 0 0 0 0 0 0 0 0 0 0 0 0 0 0 0 0 0 0 0
31 152 314 536 694 811 907 1037 1154 1223 1328 1439 1579 1583 1570 1753 1954 2156 2315 2403 2476 2458 2407 2312 2332 2338 2342 2393 2266 1948 1117 417 0 0 0 0 0 0 0 0 0 0 0 0 0 0 0 0 0 0 0 0 0 0 0 0 0 0 0 0 0 0 0
74 156 243 430 588 730 838 905 987 1088 1185 1303 1395 1472 1526 1741 1918 2117 2269 2346 2376 2369 2345 2276 2255 2312 2306 2291 2110 1824 1160 0 0 0 0 0 0 0 0 0 0 0 0 0 0 0 0 0 0 0 0 0 0 0 0 0 0 0 0 0 0 0 2
124 126 205 300 471 618 730 804 829 882 1012 1133 1234 1313 1504 1729 1898 2066 2218 2299 2339 2312 2240 2219 2236 2216 2210 2339 1838 1370 723 0 0 0 0 0 0 0 0 0 0 0 0 0 0 0 0 0 0 0 0 0 0 0 0 0 0 0 0 0 0 0 0
130 149 183 247 350 511 635 666 720 780 838 968 1093 1219 1494 1724 1904 2066 2184 2265 2292 2301 2244 2150 2166 2180 2129 2349 1617 1140 373 0 0 0 0 0 0 0 0 0 0 0 0 0 0 0 0 0 0 0 0 0 0 0 0 0 0 0 0 0 0 0 2
120 8 17 202 291 371 488 582 627 681 730 835 990 1185 1479 1719 1915 2060 2164 2224 2259 2265 2258 2138 2073 2148 2145 2060 1747 1009 210 99 0 0 0 0 23 0 0 0 0 0 0 0 0 0 0 0 0 0 0 0 0 0 0 0 0 0 0 0 0 0 1
7 0 6 28 183 353 374 461 555 618 658 712 852 1048 1411 1727 1926 2065 2138 2183 2209 2232 2222 2133 2062 2025 2044 2016 1169 552 48 203 209 158 210 142 70 0 0 0 0 0 0 0 0 0 0 0 0 0 0 0 0 0 0 0 0 0 0 0 0 0 0
111 0 4 39 233 305 348 394 473 550 614 653 698 869 1272 1693 1943 2054 2102 2137 2155 2182 2176 2161 2116 2022 2010 1934 1214 397 66 203 297 190 194 241 61 0 1 0 0 0 0 0 0 0 0 0 0 0 0 0 0 0 0 0 0 0 0 0 0 0 0
11 3 11 84 308 371 397 429 472 528 592 626 636 747 1114 1556 1876 2026 2091 2100 2106 2130 2180 2131 2112 2053 2014 1834 1224 622 410 377 0 0 147 257 202 0 34 12 3 0 0 0 0 0 0 0 0 0 0 0 0 0 0 0 0 0 0 0 0 0 0
25 28 29 111 362 403 455 501 518 549 634 682 668 792 1098 1462 1731 1927 2030 2074 2078 2108 2125 2092 2093 2081 2030 1900 1565 704 408 539 372 2 204 323 331 262 181 40 5 1 0 0 0 0 0 0 0 0 0 0 0 0 0 0 25 27 6 9 22 0 0
67 317 316 354 383 445 490 511 508 526 597 742 792 933 1175 1474 1674 1792 1896 1970 2032 2062 2068 2054 2016 2006 2033 1996 1771 1256 741 380 0 31 117 253 333 196 58 29 26 2 0 0 0 0 0 0 0 0 0 0 0 0 41 153 115 2 1 3 94 170 0
330 389 437 447 480 534 560 559 525 538 554 632 847 1042 1298 1570 1727 1784 1853 1890 1915 1952 1977 1954 1926 1896 1816 1808 1430 847 601 349 174 15 6 188 167 70 52 339 119 207 0 0 0 0 0 0 0 0 0 0 0 0 0 0 26 312 328 287 147 129 157
393 448 504 538 559 611 660 676 657 661 650 660 700 953 1363 1667 1773 1834 1851 1866 1880 1872 1886 1872 1841 1832 1829 1760 1538 673 500 357 109 20 16 16 36 76 168 66 317 234 83 0 0 0 0 0 0 0 0 0 0 2 6 273 327 362 355 334 142 0 1
152 282 473 607 643 642 673 831 1149 1143 982 968 983 960 1293 1659 1791 1842 1893 1932 1910 1917 1901 1919 1943 1842 1705 1728 1524 789 666 387 17 46 30 32 50 99 60 46 246 119 0 0 103 340 316 0 0 0 0 4 8 18 43 337 346 202 62 54 0 0 0
31 410 602 836 1048 1124 1131 1102 1238 1465 1675 1663 1538 1366 1319 1564 1752 1851 1900 1919 1942 1942 1952 1887 1745 1727 1690 1695 1508 1038 726 400 250 115 131 141 91 47 74 96 124 14 0 47 284 372 54 41 20 23 54 56 39 128 374 431 393 334 236 194 253 188 0
225 566 779 816 648 585 598 689 660 899 1171 1608 1866 1851 1768 1689 1637 1771 1878 1888 1928 1911 1868 1838 1795 1739 1735 1744 1636 1125 596 530 419 150 254 194 46 14 21 43 128 246 379 380 387 395 361 316 80 69 75 18 353 380 467 528 510 578 386 0 0 0 0
0 319 167 6 51 83 251 476 708 915 1209 1646 1906 1979 1981 1965 1920 1876 1865 1859 1884 1872 1875 1811 1776 1760 1797 1860 1636 1192 911 652 346 304 103 58 40 6 6 18 20 0 367 456 509 531 471 360 60 96 46 155 403 466 517 566 668 630 243 0 0 0 0
0 0 0 0 0 1 272 906 1291 1387 1458 1668 1910 2036 2065 2066 2054 2015 2016 2016 2001 1988 1940 1901 1859 1867 1864 1891 1954 1372 864 550 466 266 88 212 288 412 120 49 181 312 163 382 521 592 472 92 49 1 405 485 547 551 646 774 709 419 0 0 0 0 28
86 11 1 139 135 334 632 1260 1798 1862 1785 1800 1926 1965 2102 2111 2088 2082 2095 2074 2072 2039 2029 1979 1965 1928 1927 1798 1464 1008 384 578 460 394 264 310 379 409 429 146 249 418 424 503 567 486 262 129 153 467 570 635 656 622 538 465 414 99 0 0 0 0 0
439 806 1364 2412 2786 2459 1840 1955 2083 2076 2074 2005 2008 1971 1949 2017 2040 2051 2035 2019 2015 2017 2004 1939 1835 1692 1711 1229 973 536 631 596 641 545 333 343 377 426 463 422 283 317 350 404 404 351 366 433 528 617 652 598 572 409 332 317 182 0 0 73 32 0 0
1626 2036 2539 2738 2850 2953 2587 2563 2167 2065 2106 2015 1954 1897 1885 1862 1929 1936 1878 1859 1902 1985 1936 1785 1530 1380 1437 976 803 488 450 687 709 669 551 516 488 468 462 436 407 478 526 550 554 529 583 623 683 701 686 626 560 364 0 217 0 0 129 112 0 0 0
2411 2676 2990 3016 2880 2760 2596 2521 2314 2266 2134 2082 2037 1919 1818 1778 1770 1769 1709 1714 1830 2002 1901 1538 1212 1155 1226 1189 1012 534 682 751 844 852 821 762 628 549 536 561 664 721 909 974 957 838 815 811 717 752 708 606 542 449 301 214 226 226 170 66 3 0 0
2400 2840 3087 3093 3096 2791 2568 2290 2377 2288 2146 1910 1958 1889 1771 1726 1735 1748 1737 1740 1826 1920 1727 1245 993 1149 1244 1044 631 756 802 923 979 964 897 889 777 686 642 763 875 1105 1142 1025 940 957 944 826 748 789 799 666 396 343 308 328 298 169 112 89 30 0 46
2416 2703 2832 2886 2929 2840 2633 2454 2279 2267 2187 2131 1901 1758 1710 1646 1708 1788 1884 1924 1904 1820 1467 1050 946 1059 976 844 452 591 853 1068 1145 998 949 968 832 724 836 1055 1335 1420 1350 1290 1215 1098 1011 998 1053 1038 884 464 411 400 362 285 100 37 49 32 53 104 154
1681 1881 2230 2457 2598 2759 2786 2552 2217 2118 2256 2161 2020 1847 1772 1763 1762 1946 1993 1852 1678 1534 1236 902 823 867 680 637 441 825 926 1050 984 878 1084 1078 1064 1074 1459 1782 1798 1741 1635 1408 1294 1094 928 842 972 896 597 329 378 312 0 0 0 0 0 0 0 0 0
1465 1673 1962 2090 2197 2451 2612 2572 2402 2234 2203 2070 1970 1969 1926 1920 1950 1974 1847 1634 1364 1117 984 746 602 613 716 745 758 942 992 988 1024 1252 1279 1273 1309 1579 1938 1965 1957 1873 1650 1460 1407 1312 1153 1009 830 548 510 476 45 0 0 0 0 0 0 0 0 0 0
1210 1297 1638 1818 1912 2111 2310 2487 2423 2318 2220 2241 2108 2059 2028 2026 1969 1890 1658 1348 1294 1548 1469 1220 1143 1075 971 1020 1097 1042 1084 1053 890 1054 1108 1186 1505 1904 2005 1989 1841 1629 1510 1388 1140 967 846 662 676 766 624 34 0 0 0 0 0 0 0 0 0 0 0
1182 1084 1166 1447 1730 1824 2100 2203 2298 2323 2327 2312 2236 2098 2014 1983 1959 1745 1426 1156 1502 1677 1697 1590 1531 1418 1380 1289 1135 886 746 653 962 845 911 1230 1757 1948 1886 1775 1662 1622 1519 1199 840 790 807 794 752 328 0 0 0 0 0 0 186 0 0 0 0 0 0
1129 1074 1089 1354 1466 1624 1781 1943 2111 2215 2200 2177 2052 1942 1804 1819 1659 1321 1088 1085 1244 1472 1555 1584 1543 1470 1243 1158 1130 805 706 638 697 786 1091 1592 1788 1749 1730 1711 1675 1590 1472 1261 1185 1141 806 432 0 0 0 0 0 0 9 8 0 0 0 0 0 0 0
1080 991 1029 1060 1280 1377 1506 1600 1704 1782 1775 1730 1563 1449 1389 1397 1269 1123 1110 989 1122 1226 1164 1177 1157 1045 871 772 694 648 669 720 848 1376 1600 1667 1796 1774 1695 1583 1448 1332 1283 1237 966 534 134 0 0 85 128 0 0 0 0 0 0 0 0 0 0 0 0
987 968 986 983 1033 1182 1272 1276 1262 1289 1299 1274 1190 1146 1153 1193 1197 1072 940 1007 1210 1272 1099 888 848 831 866 647 687 804 996 1333 1655 1733 1848 1820 1707 1609 1535 1455 1166 1123 1030 785 400 263 227 211 191 99 0 0 0 0 0 0 0 0 0 0 0 0 0
1206 1011 1005 981 921 1023 1071 1113 1110 1082 1076 1052 1041 1067 1118 1185 1070 1011 1010 1129 1044 762 704 284 389 450 708 1026 1181 1161 1316 1598 1769 1785 1609 1631 1677 1625 1493 1313 1148 812 616 425 360 312 269 223 164 95 0 0 0 0 0 0 0 0 0 0 0 0 0

ECMWFFLT1_con_mucape_024.txt.gz
CAPE
114 142 243 357 421 496 720 913 1061 1191 1250 1321 1367 1526 1755 1786 1924 2004 2006 2008 2103 2041 2008 2060 2136 2192 2289 2374 2404 2437 2464 2344 2047 1952 2081 2156 1661 0 0 0 0 0 0 0 0 0 2 22 36 56 16 56 56 19 24 132 128 137 67 69 43 54 3
94 123 207 312 411 471 682 899 1064 1222 1316 1380 1451 1562 1810 1960 2009 2089 2138 2124 2176 2208 2174 2206 2246 2278 2299 2328 2327 2314 2283 2179 2049 2099 2237 2182 1549 0 0 0 0 0 0 0 0 0 4 6 22 14 6 102 103 27 28 72 125 108 93 30 31 16 23
42 106 197 312 414 494 650 862 1060 1235 1391 1474 1530 1598 1783 1998 2088 2146 2200 2224 2244 2280 2268 2251 2291 2322 2313 2307 2288 2274 2250 2192 2162 2219 2286 2225 1309 0 0 0 0 0 0 0 0 0 3 5 6 0 4 24 102 24 12 15 76 58 47 20 24 45 2
35 110 201 318 436 534 636 822 1028 1204 1382 1521 1605 1662 1756 1932 2092 2170 2216 2243 2255 2288 2310 2274 2255 2286 2286 2261 2213 2242 2267 2252 2241 2272 2365 2157 568 0 0 0 0 0 0 0 0 0 2 1 6 0 296 8 31 29 2 4 2 13 20 12 7 0 0
17 86 192 316 463 560 651 792 972 1159 1343 1495 1607 1694 1754 1876 2019 2128 2195 2235 2245 2272 2297 2294 2248 2233 2221 2180 2141 2188 2243 2268 2282 2379 2475 1836 254 0 0 0 0 0 0 0 0 0 3 1 0 0 12 17 6 2 6 0 0 0 0 1 10 5 4
10 44 107 306 468 598 694 794 949 1128 1300 1451 1576 1673 1758 1841 1965 2078 2170 2226 2266 2269 2285 2315 2310 2261 2198 2151 2130 2114 2186 2253 2348 2524 2471 1451 104 0 0 0 0 0 0 0 0 0 0 0 1 0 0 1 3 0 0 0 0 0 0 0 1 0 0
11 69 123 241 430 612 728 828 951 1121 1272 1411 1537 1635 1722 1813 1936 2065 2154 2229 2287 2301 2298 2322 2338 2276 2208 2146 2158 2139 2179 2293 2450 2580 2266 1210 38 0 0 0 0 0 0 0 0 0 0 0 0 0 0 0 17 10 5 0 0 0 0 0 0 0 0
10 37 101 166 332 530 715 837 947 1098 1258 1397 1514 1617 1690 1786 1890 2008 2127 2220 2300 2329 2318 2294 2289 2246 2208 2134 2110 2131 2197 2285 2485 2589 2186 1130 0 0 0 0 0 0 0 0 0 0 0 0 0 0 0 0 0 3 0 0 0 0 0 0 0 0 0
2 23 72 141 256 422 633 809 950 1052 1194 1358 1504 1608 1685 1757 1830 1945 2076 2189 2272 2332 2353 2312 2244 2172 2125 2077 2079 2121 2200 2274 2475 2515 2146 1077 412 0 0 0 0 0 0 0 0 0 0 0 0 0 0 0 1 0 0 0 0 0 0 0 0 0 0
0 3 22 118 220 360 532 754 930 1039 1148 1266 1423 1543 1640 1702 1756 1857 1999 2123 2224 2307 2371 2349 2246 2148 2084 2044 1982 2005 2065 2208 2411 2504 1958 794 0 0 0 0 0 0 0 0 0 0 0 0 0 0 0 0 4 0 0 0 0 0 0 0 0 0 0
1 10 16 27 217 342 510 691 879 1028 1129 1219 1304 1410 1540 1624 1688 1758 1882 2024 2154 2260 2335 2348 2277 2163 2094 2031 1935 1890 1875 2110 2324 2266 1556 370 0 0 0 0 0 0 0 0 0 0 0 0 0 0 0 0 0 0 0 0 0 0 0 0 0 0 0
1 3 8 11 136 337 506 654 802 947 1096 1186 1239 1308 1412 1517 1604 1681 1762 1884 2034 2156 2221 2253 2245 2159 2106 1968 1878 1754 1803 2006 2196 2102 1853 0 0 0 0 0 0 0 0 0 0 0 0 0 0 0 0 0 0 0 0 0 0 0 0 0 0 0 0
2 1 4 5 44 285 452 606 742 879 986 1086 1160 1231 1314 1407 1528 1614 1690 1766 1858 1981 2069 2130 2150 2142 2085 1998 1764 1636 1682 1996 2242 1921 844 0 0 0 0 0 0 0 0 0 0 0 0 0 0 0 0 0 0 0 0 0 0 0 0 0 0 0 0
102 1 0 135 224 260 394 559 677 774 870 962 1022 1104 1205 1304 1424 1521 1607 1686 1716 1872 1972 2062 2120 2135 2106 2029 1894 1639 1700 2007 1722 721 127 0 0 0 0 0 0 0 0 0 0 0 0 0 0 0 0 0 0 0 0 0 0 0 0 0 0 0 0
17 51 99 0 68 69 320 475 603 704 758 812 861 932 1035 1154 1268 1380 1498 1610 1720 1870 1978 2046 2081 2098 2089 2045 1971 1868 1662 1499 1149 196 48 234 231 165 0 0 0 0 0 0 0 0 0 0 0 0 0 0 0 0 0 0 0 0 0 0 0 0 0
9 93 57 92 277 312 358 398 510 598 641 671 719 771 860 974 1104 1299 1500 1646 1770 1879 1970 2041 2076 2084 2071 2044 2001 1861 1776 1677 1474 844 237 114 134 96 39 16 6 0 0 0 0 0 0 0 0 0 0 0 0 0 0 0 0 6 0 0 4 0 0
46 170 205 258 306 344 359 380 434 500 564 594 620 647 684 768 991 1333 1564 1698 1795 1868 1940 2001 2048 2079 2076 2024 1947 1931 1880 1794 1633 1189 811 378 0 0 10 6 5 0 0 0 0 0 0 0 0 0 0 0 0 0 0 0 0 0 0 0 0 54 26
186 186 232 278 327 360 403 422 432 444 498 525 548 566 589 623 858 1313 1594 1714 1799 1863 1918 1984 2033 2062 2058 2018 1964 1904 1867 1872 1859 1626 844 423 60 0 22 0 0 0 3 0 0 0 0 0 0 0 0 0 0 0 0 0 0 0 126 183 199 204 219
215 221 250 29 270 391 422 451 461 480 486 490 532 548 564 614 908 1225 1491 1659 1787 1854 1897 1952 1992 2037 2044 1994 1960 1936 1906 1823 1741 1655 830 759 240 242 136 2 3 2 1 1 1 0 0 0 0 0 0 0 0 0 0 0 0 0 96 193 262 279 286
255 258 134 194 332 368 410 425 463 494 533 550 584 602 676 794 970 1138 1323 1526 1657 1783 1858 1914 1975 2024 2026 1993 1949 1928 1911 1756 1708 1524 1063 484 245 0 4 0 11 2 94 88 0 0 0 0 0 0 0 0 0 0 2 2 6 50 93 185 261 192 150
291 296 314 330 360 367 402 436 529 622 679 702 757 870 865 914 1034 1126 1265 1412 1520 1636 1740 1804 1894 1922 1963 1945 1912 1916 1870 1818 1696 1568 862 488 173 6 0 0 0 0 0 0 0 0 0 0 0 0 0 1 333 334 217 21 6 74 134 274 339 447 371
247 270 302 359 436 476 501 587 658 731 853 883 963 963 911 940 1109 1223 1316 1383 1477 1530 1589 1674 1725 1803 1820 1847 1828 1817 1758 1676 1644 1492 654 447 310 150 12 0 0 0 0 0 0 0 0 0 164 86 9 68 419 339 92 95 3 86 238 324 495 583 395
202 273 385 461 522 681 694 681 781 874 1212 1269 1226 1153 1076 1054 1125 1286 1360 1418 1504 1540 1594 1620 1673 1714 1748 1787 1764 1701 1656 1598 1641 1422 863 590 396 33 8 0 0 0 0 0 0 0 0 0 0 94 302 400 392 263 96 122 170 223 379 515 638 558 279
232 311 448 566 610 610 552 442 569 788 1151 1404 1451 1506 1445 1397 1374 1352 1368 1444 1502 1552 1630 1652 1706 1733 1770 1775 1729 1710 1711 1691 1515 1328 960 688 437 68 3 0 0 0 1 2 0 0 2 8 310 410 480 488 462 419 134 162 263 445 648 654 519 308 204
205 301 270 192 0 134 794 1114 1175 1329 1506 1516 1580 1620 1690 1666 1610 1537 1522 1523 1536 1570 1614 1658 1691 1742 1771 1778 1770 1764 1767 1697 1364 1015 717 478 84 50 24 0 0 0 0 4 9 30 36 76 244 400 526 591 591 456 169 261 539 605 535 367 280 200 127
668 1564 1908 1344 883 928 1290 1313 1248 1389 1474 1519 1620 1654 1659 1694 1651 1590 1563 1517 1534 1578 1594 1628 1672 1692 1716 1743 1734 1694 1723 1415 1244 887 599 427 76 67 15 0 0 0 1 18 34 67 50 86 368 471 570 614 517 377 355 536 543 495 391 273 186 144 44
2210 2261 2074 1808 1608 1578 1580 1592 1521 1489 1709 1704 1728 1590 1584 1594 1612 1579 1528 1542 1553 1559 1559 1577 1593 1620 1632 1650 1646 1626 1629 1468 1251 1029 641 262 166 124 29 0 99 108 228 274 270 286 292 370 477 538 564 475 320 463 497 494 506 473 384 353 338 291 254
2228 2175 2238 2354 2294 2054 1937 1941 1800 1654 1702 1756 1698 1646 1609 1518 1484 1442 1410 1433 1500 1499 1461 1463 1476 1514 1700 1788 1753 1670 1569 1426 1226 968 541 121 78 2 202 214 261 346 421 435 444 512 627 702 678 694 778 769 804 777 777 745 636 591 489 400 337 320 171
2198 2300 2468 2521 2267 2073 1918 1935 1921 1961 1962 1780 1734 1664 1623 1498 1405 1387 1383 1406 1420 1407 1416 1456 1511 1642 1780 1785 1674 1592 1533 1398 1028 685 179 28 5 180 310 372 444 526 564 546 603 682 796 941 966 930 964 963 866 814 837 774 586 387 265 330 322 68 0
1755 2025 2268 2370 2548 2379 2134 2101 1897 2028 2003 1931 1814 1692 1592 1468 1380 1353 1352 1420 1379 1472 1543 1555 1598 1717 1721 1664 1533 1440 1384 1337 1018 520 440 442 416 429 468 453 511 632 693 822 950 1070 1159 1228 1192 1222 1203 1054 956 874 691 499 410 368 330 243 0 0 0
931 1132 1286 1583 2139 2176 2591 2450 2464 2224 2080 1932 1914 1848 1699 1563 1450 1428 1394 1378 1449 1564 1566 1562 1576 1608 1512 1390 1278 1234 1285 1236 851 603 590 552 481 526 530 315 386 582 732 986 1224 1315 1358 1376 1419 1370 1316 1257 1043 820 618 571 510 290 0 0 0 0 0
637 787 1100 1359 1576 1773 1960 2201 2282 2227 2098 2010 1939 1908 1834 1683 1584 1520 1500 1470 1563 1597 1586 1524 1456 1320 1107 1012 1094 1234 1226 998 689 718 760 772 767 648 460 469 567 708 754 1018 1446 1714 1766 1730 1616 1466 1304 1056 802 664 636 606 336 0 0 0 0 0 0
637 696 818 832 1146 1442 1682 1766 1898 1895 1903 1959 1874 1900 1906 1856 1760 1691 1639 1545 1540 1558 1484 1364 1168 1014 830 810 1042 1182 1076 796 897 931 964 960 890 748 711 672 662 798 984 1204 1664 1861 1762 1640 1539 1340 1080 849 698 641 611 363 0 0 0 0 0 0 0
532 811 744 793 1062 1108 1354 1520 1682 1779 1811 1887 1863 1940 1962 1947 1925 1814 1735 1669 1614 1484 1324 1207 1198 1070 876 765 933 1033 933 902 1012 1050 1133 1169 1166 1080 958 843 1016 1084 1172 1474 1850 1776 1628 1510 1394 1165 982 831 698 561 143 0 0 0 0 0 0 0 0
783 744 842 873 1052 1109 1260 1385 1469 1554 1640 1775 1770 1835 1850 1815 1799 1764 1683 1652 1587 1450 1278 1370 1499 1315 952 754 739 802 936 967 1139 964 1022 1130 1129 1035 1010 938 1007 1187 1486 1821 1703 1627 1615 1492 1320 1068 976 722 378 0 0 0 0 0 0 0 0 0 0
680 710 744 758 690 947 1065 1176 1258 1381 1469 1516 1587 1564 1518 1471 1488 1538 1602 1607 1540 1346 1266 1596 1665 1407 1022 837 832 1020 995 927 865 831 822 790 712 682 702 816 971 1358 1652 1758 1679 1535 1303 1115 1022 956 632 162 0 0 0 0 0 0 0 0 0 0 0
696 746 820 757 736 708 893 1010 1066 1144 1224 1234 1182 1167 1110 1070 1085 1224 1417 1508 1269 1085 1286 1487 1670 1596 1250 1051 1161 1019 802 758 645 607 558 576 632 667 790 985 1164 1756 1830 1720 1503 1257 1073 1071 936 594 228 0 0 0 0 0 0 0 0 0 0 0 0
909 982 976 893 844 780 736 824 926 970 975 930 895 879 860 869 905 1003 1152 1083 932 992 1070 1054 1163 1528 1402 1322 1192 974 851 687 516 508 477 586 652 764 993 1463 1841 1819 1618 1285 1087 1017 983 931 546 270 140 0 0 0 0 0 0 0 0 0 0 0 0

ECMWFFLT1_con_mucape_027.txt.gz
CAPE
435 577 856 1152 1111 978 1169 1443 1550 1650 1816 1769 1732 1550 1549 1755 1946 2322 2210 2382 2459 2572 2909 3004 3075 3114 3166 3267 3303 3392 3286 3243 3151 3052 2686 2514 2173 2236 2242 1750 1492 1163 1046 918 800 905 898 1135 1332 1226 1351 1318 1004 974 1038 974 903 681 713 774 690 705 527
375 464 656 894 978 1030 1138 1428 1747 1756 1818 1798 1756 1795 1660 1895 2227 2247 2272 2509 2610 2661 2892 2958 3059 3139 3228 3354 3361 3383 3280 3146 3013 2772 2521 2237 2117 2364 2204 1786 1538 1103 1112 1026 1085 1090 1145 1269 1108 1170 1228 1198 956 978 886 1010 915 843 646 868 774 766 727
378 438 584 806 966 1057 1300 1439 1724 1805 1903 1767 1762 1836 1908 2212 2369 2357 2460 2592 2720 2788 2942 3057 3100 3156 3222 3422 3438 3398 3265 3114 2882 2627 2310 2169 2312 2388 2027 1841 1660 995 898 1002 1082 1056 1053 1114 1246 1203 1063 934 791 1013 995 908 992 930 885 992 912 745 809
575 538 648 925 1134 1360 1371 1340 1629 1709 1840 1802 1828 1911 2113 2534 2526 2561 2752 2707 2807 2963 3056 3109 3116 3172 3283 3408 3458 3484 3350 3136 2820 2522 2286 2333 2413 2260 1950 1914 1631 880 910 822 746 788 870 1029 1084 1220 1127 901 888 822 940 826 792 1006 928 1021 892 796 875
700 661 676 858 912 1140 1153 1381 1584 1804 1790 1850 2012 2208 2376 2590 2566 2657 2827 2817 2780 2989 3038 3158 3103 3245 3324 3333 3354 3427 3233 2768 2678 2360 2367 2385 2381 2131 1956 2012 1591 600 720 772 676 688 940 928 898 1010 1040 1009 808 968 1022 1018 886 1020 833 946 785 782 712
655 805 859 858 857 1070 1187 1236 1359 1568 1751 1891 2116 2380 2410 2410 2356 2358 2551 2840 2966 3014 3218 3289 3342 3364 3343 3286 3342 3316 2992 2647 2451 2334 2366 2330 2232 2061 2086 2139 1607 558 669 748 533 574 844 852 793 880 771 688 606 660 663 868 774 800 756 924 757 613 533
668 779 844 869 988 1047 1116 1135 1167 1366 1692 1932 2122 2314 2196 2160 2285 2333 2411 2727 2936 3134 3257 3362 3390 3378 3376 3380 3306 3033 2788 2567 2286 2275 2216 2176 2142 2114 2188 2238 1415 596 654 858 718 644 664 910 951 1060 1014 789 774 741 799 998 768 905 908 899 812 843 814
672 782 954 1006 1012 988 1074 1192 1256 1399 1710 1984 2160 2165 2108 2161 2258 2392 2528 2666 2815 2822 3024 3044 3256 3428 3472 3334 3067 2754 2455 2217 2208 2190 2115 2080 2148 2171 2320 2246 958 805 795 649 692 668 554 799 855 896 918 746 928 1087 1020 1122 1109 763 783 752 758 696 757
607 921 806 758 915 934 1088 1346 1417 1682 2058 2239 2314 2332 2259 2328 2364 2508 2659 2809 2897 2906 3040 2996 3292 3475 3483 3132 2866 2591 2221 2164 2124 2036 1996 2036 2123 2210 2357 1916 592 582 496 408 318 457 542 604 554 786 876 843 948 1060 1082 1170 1087 936 877 835 804 720 576
750 881 946 876 913 999 1351 1575 1852 2175 2364 2478 2470 2531 2498 2567 2564 2578 2710 2769 2852 2967 3088 3118 3232 3422 3308 2799 2676 2374 2246 2006 1951 1814 1808 1948 2118 2341 2374 1621 456 286 284 278 196 148 260 384 516 663 793 776 879 1004 925 966 1000 990 978 946 940 897 920
717 1017 1060 912 1091 1354 1571 1497 1829 2186 2292 2594 2630 2527 2687 2769 2736 2685 2786 2790 2840 2994 3140 3254 3264 3326 3310 3041 2514 2146 2122 1857 1686 1656 1769 1948 2213 2399 2278 1437 217 201 145 127 99 154 122 102 264 482 557 541 801 902 875 871 876 1106 1085 1009 1002 1006 902
935 1009 1215 1205 1378 1532 1467 2017 2174 2246 2363 2462 2444 2459 2825 2886 2764 2731 2874 2939 2933 2999 3112 3226 3276 3278 3215 2900 2355 2213 1976 1726 1572 1464 1635 1963 2212 2328 1979 1298 180 166 122 106 4 3 37 149 200 286 462 542 704 811 836 807 1021 1126 1160 1010 984 916 734
806 1053 1119 966 1396 1602 2118 2054 2092 2277 2433 2367 2320 2530 2678 2625 2651 2683 2904 2973 2856 2943 3132 3315 3318 3310 3159 2831 2270 2204 1955 1656 1568 1398 1477 1884 2140 2296 1982 1335 216 90 30 6 11 14 35 9 141 241 334 468 430 450 486 588 690 883 938 911 869 776 707
662 724 878 1275 1343 1424 1628 2057 2311 2327 2367 2282 2382 2581 2512 2594 2668 2732 2922 2902 2874 2885 3110 3289 3302 3361 3188 2795 2259 2188 2098 1848 1436 1172 1257 1682 2016 2134 2107 1448 145 90 14 10 37 9 65 84 150 158 178 362 408 396 288 378 482 666 664 677 761 802 860
425 526 772 865 1394 1827 1911 1892 2189 2216 2270 2347 2306 2346 2436 2482 2564 2721 2807 2702 2847 2786 2912 3230 3355 3385 3139 2686 2272 2249 2169 2031 1792 1433 1253 1500 1683 1980 1907 596 187 14 60 120 82 36 24 45 157 128 216 342 415 289 156 183 244 392 559 703 806 923 1019
540 582 665 844 1270 1467 1830 1954 2162 2286 2314 2384 2276 2368 2292 2412 2588 2620 2628 2640 2739 2826 2959 3519 3476 3384 3006 2534 2198 2194 2151 2076 1927 1705 1439 1230 1496 1809 1672 466 268 0 0 6 16 28 16 40 201 95 218 331 372 369 316 272 322 252 12 169 892 1165 1092
686 702 731 1004 1485 1464 1736 1896 2047 2166 2190 2183 2213 2284 2298 2416 2418 2472 2332 2559 2713 2994 3304 3245 3338 3174 2852 2448 2143 2108 2143 2084 1972 1815 1618 1386 1267 1712 1172 214 12 18 0 0 8 77 151 314 86 11 26 42 75 190 311 301 312 16 0 0 5 630 954
829 964 926 985 1146 1302 1598 1717 1941 1958 1966 1946 2101 2262 2294 2401 2394 2389 2345 2655 2792 2810 3073 2969 3041 2864 2852 2639 2342 2044 2053 1978 1897 1756 1626 1510 1377 1412 1058 767 451 235 154 47 88 184 264 106 33 24 1 9 16 39 218 404 120 0 0 0 0 67 676
1000 1003 1134 1237 1172 1268 1295 1408 1636 1844 1746 1785 1836 1940 2022 2296 2187 2380 2598 2650 2796 3050 2980 2819 2784 2788 2762 2540 2192 1980 1902 1867 1832 1757 1754 1708 1660 1631 1460 888 566 414 212 130 230 326 312 243 113 83 78 53 128 192 246 371 196 121 4 0 0 24 238
939 958 934 894 1075 1138 1393 1495 1433 1528 1692 1865 1765 1702 1645 1765 2138 2411 2674 2888 3141 3010 2900 2907 2757 2715 2620 2275 1958 1930 1882 1846 1819 1780 1785 1776 1752 1756 1748 1421 899 534 500 408 240 331 293 226 241 108 98 168 278 399 429 495 291 182 84 25 9 0 66
1030 863 1027 1286 1213 1104 1384 1482 1578 1628 1626 1557 1600 1642 1726 1913 2056 2561 2675 2912 2940 2950 2940 2834 2755 2736 2484 1936 1901 1864 1831 1786 1784 1812 1780 1752 1740 1738 1685 1634 1333 821 599 500 344 235 391 372 145 57 106 158 300 359 440 535 297 226 226 174 83 4 64
674 845 1088 988 1371 1662 1630 1329 1503 1258 1572 1662 2088 1894 1771 1873 1970 2360 2653 2840 2836 2733 2723 2770 2654 2582 2344 1876 1793 1766 1746 1754 1763 1778 1811 1758 1770 1714 1658 1596 1137 1111 810 567 424 381 338 300 173 229 257 300 390 417 571 591 271 257 355 351 169 37 159
728 856 1107 1268 1214 1597 2205 1985 2165 2248 2618 1976 1768 1859 1878 2138 2146 2390 2645 2638 2558 2618 2594 2578 2507 2385 2223 1801 1720 1723 1712 1729 1730 1755 1758 1741 1709 1676 1695 1664 1564 1188 725 502 427 551 519 490 397 498 562 665 760 778 856 968 650 332 367 410 188 0 598
558 875 1282 1358 2062 2041 2178 2302 2448 2356 2343 2216 2046 2068 2188 2204 2468 2625 2586 2617 2540 2429 2408 2383 2400 2262 1999 1785 1673 1655 1658 1689 1699 1720 1737 1752 1743 1702 1687 1516 1440 1034 597 394 481 414 419 432 452 589 608 638 791 749 1012 1104 1048 418 403 432 28 72 882
592 846 1138 1238 1483 1832 2002 2453 2745 2734 2968 2736 2597 2281 2297 2395 2603 2586 2642 2479 2172 2170 2213 2236 2286 2055 1819 1652 1592 1626 1668 1682 1684 1704 1721 1720 1709 1721 1560 1297 1175 686 424 307 316 329 344 220 219 363 606 663 701 733 756 1102 1194 552 524 372 60 294 641
1664 1467 1618 2084 2471 2761 2935 2829 2797 3206 3356 3440 2992 2256 2394 2386 2537 2641 2540 2185 2128 2149 2213 2180 2143 1956 1613 1588 1580 1608 1643 1638 1640 1648 1672 1678 1666 1594 1154 929 644 408 297 278 331 362 328 315 235 599 860 1004 1034 960 854 1002 1514 673 659 460 390 496 446
2548 2468 2358 2118 2204 2282 2778 3060 3190 3098 2982 2620 2208 2116 2222 2380 2664 2582 2480 2370 2236 2300 2242 2128 1982 1716 1528 1542 1545 1553 1582 1594 1595 1596 1568 1504 1348 1149 957 653 374 180 285 404 401 433 704 951 946 983 1178 1199 1130 1086 1211 1121 1283 790 608 447 441 396 435
2536 2367 2236 2224 2314 2490 2375 2273 2212 1864 1639 1738 1818 1811 2053 2559 2773 2466 2197 2117 2310 2413 2089 1896 1797 1539 1449 1462 1474 1496 1608 1639 1638 1544 1458 1427 1229 948 721 379 347 429 511 556 754 819 990 1194 1252 1271 1177 940 627 573 651 570 490 838 632 506 492 586 406
3059 2929 2955 3020 2580 2290 2532 2512 2039 1684 1545 1522 1612 1668 1909 2437 2484 2261 2078 2228 2297 1975 1753 1651 1532 1408 1416 1473 1489 1638 1682 1647 1580 1505 1362 1310 1074 829 659 499 535 544 676 913 981 938 1075 1267 1238 946 370 502 480 460 314 384 496 722 658 668 735 726 594
2599 2555 2328 2325 2430 2383 2394 2359 2071 1736 1704 1676 1603 1721 1693 2348 2390 2179 2158 2240 1727 1498 1463 1473 1440 1476 1513 1539 1638 1731 1725 1603 1474 1380 1253 1126 937 729 441 672 654 767 992 1018 922 1050 1199 1425 606 245 265 295 464 470 470 597 691 667 667 712 700 442 274
2317 2554 2770 2828 2655 2598 2833 2847 2530 1944 1758 1666 1732 1733 1776 1829 2354 2085 2162 1786 1325 1334 1362 1439 1496 1529 1498 1574 1647 1685 1643 1514 1308 1209 1105 988 862 656 564 644 772 1020 1121 1091 1100 1232 1034 532 570 505 374 380 482 632 826 729 696 678 587 509 354 207 0
1904 2175 2366 2544 2549 2422 2448 2404 2274 2218 1791 1577 1599 1633 1736 1798 1806 2085 2035 1500 1437 1381 1445 1518 1494 1440 1468 1516 1536 1480 1455 1407 1299 1179 1053 938 784 718 774 877 968 833 1080 1108 1072 1222 973 576 627 569 414 548 1006 1016 777 608 553 509 560 351 18 0 0
1606 1585 1916 2021 2010 2424 2778 2810 2318 1997 1980 1622 1491 1520 1707 1729 1804 1808 1761 1726 1634 1514 1456 1472 1470 1429 1370 1400 1287 1209 1187 1236 1273 1206 1106 924 673 813 883 790 828 907 1114 1176 1160 1041 1125 1142 530 678 947 946 825 765 600 561 540 548 312 1 1 0 0
1812 1646 1228 1236 1483 1683 2142 2402 2282 2034 1838 1716 1329 1403 1464 1539 1583 1613 1654 1642 1644 1624 1616 1485 1420 1354 1278 1149 1036 992 1033 1240 1290 1255 1216 1066 738 645 714 791 879 1038 1138 1160 1192 1236 1202 925 486 880 1167 950 716 518 600 668 549 234 10 7 21 3 0
1587 1539 1694 2020 1893 1879 2118 2228 2105 1850 1796 1607 1159 1095 1110 1152 1213 1193 1327 1393 1516 1599 1588 1512 1361 1219 1108 1031 957 849 1019 1222 1244 1198 1152 1018 749 645 612 574 554 914 944 390 618 1340 904 635 762 916 784 716 574 636 640 399 44 67 2 2 0 0 0
1630 1503 1307 1207 1338 1580 1708 1595 1700 1680 1636 1438 1114 1083 1078 1000 865 857 903 1037 1245 1439 1511 1454 1314 1211 1135 1202 1190 915 942 1119 1116 1068 966 876 798 790 736 705 715 683 639 622 551 532 708 877 1002 733 706 566 516 548 524 632 324 0 0 0 0 0 0
1262 1450 1382 1352 1580 1639 1714 1445 1344 1405 1506 1390 1200 1212 1156 1061 837 808 684 761 1060 1297 1404 1338 1199 1155 1344 1464 1321 995 872 983 979 883 888 948 1003 1006 1041 1040 956 970 995 986 876 963 1101 1279 1081 860 776 679 425 158 2 0 0 0 0 0 0 0 0
461 734 1078 1281 1417 1586 1782 1793 1634 1528 1424 1292 1233 1290 1248 978 871 791 744 867 1069 1184 1237 1145 1039 1233 1392 1483 1341 1022 857 832 858 844 777 1076 1143 1170 1154 1123 1149 1058 928 798 1010 1147 1130 1051 830 723 638 289 78 0 0 0 0 0 0 0 0 0 0

ECMWFFLT1_con_mucape_030.txt.gz
CAPE
1761 1818 1788 1752 1910 2089 2069 2084 2233 2326 2456 2678 2832 2859 2776 2906 2864 3145 3366 3778 3869 4006 4385 4515 4558 4457 4525 4547 4635 4607 4550 4399 4369 4343 4201 4032 3611 3352 3369 3064 3024 2917 2385 1990 1746 1295 1142 948 862 754 675 678 714 712 784 829 763 671 581 622 629 537 755
1568 1584 1732 1777 1876 2018 2210 2332 2448 2420 2518 2649 2838 2917 2727 2876 3014 3101 3380 3676 3944 4010 4208 4427 4548 4588 4534 4566 4574 4595 4709 4558 4419 4290 4204 4126 3890 3700 3500 3303 3186 3086 2666 2139 1862 1417 1299 1175 918 831 677 756 801 887 843 939 860 768 549 595 662 618 577
1354 1461 1602 1809 1943 2004 2263 2365 2512 2576 2692 2566 2610 2715 2690 2918 3107 3116 3422 3646 3998 3966 4185 4526 4499 4511 4500 4592 4550 4732 4748 4742 4601 4534 4255 4105 4030 3812 3626 3581 3385 3084 2784 2380 2010 1680 1479 1297 1037 805 734 826 858 902 911 896 943 871 753 694 527 404 537
1208 1350 1512 1744 2077 2284 2348 2381 2552 2540 2546 2594 2627 2651 2795 3005 3134 3228 3364 3598 3851 3981 4112 4368 4505 4497 4471 4524 4716 4771 4773 4826 4663 4506 4250 3968 4147 3988 3790 3661 3471 3070 2722 2387 1980 1650 1280 920 935 726 741 894 842 793 826 732 758 856 802 655 529 505 693
1154 1270 1395 1624 1828 2214 2483 2438 2489 2672 2452 2435 2681 2872 2989 3083 3256 3227 3385 3543 3660 3865 3991 4191 4269 4382 4498 4566 4513 4634 4753 4810 4716 4528 4294 4084 4072 3967 3658 3373 3324 3010 2575 2353 1926 1436 1068 820 703 680 845 796 773 759 838 828 740 786 697 622 589 630 620
1330 1408 1404 1478 1706 2068 2395 2428 2422 2485 2454 2424 2646 2858 2890 2906 2922 2981 3223 3517 3638 3804 4024 4120 4356 4410 4462 4546 4408 4550 4656 4820 4774 4706 4446 4242 4031 3760 3442 3386 3193 2914 2436 2180 1616 1319 1092 688 534 646 746 757 562 494 582 739 670 707 705 644 599 568 590
1410 1658 1549 1535 1759 1916 2177 2312 2336 2339 2468 2468 2550 2846 2789 2688 2801 2827 2969 3323 3459 3752 3918 3930 4210 4344 4518 4435 4570 4604 4757 4736 4843 4720 4296 4055 3484 3307 3440 3393 3036 2726 2287 1881 1394 966 749 645 574 789 889 755 603 411 475 572 595 702 685 744 866 809 536
1584 1891 1854 1782 1772 1838 2003 2205 2244 2261 2454 2486 2485 2693 2667 2619 2713 2763 2898 3094 3318 3322 3575 3617 4019 4397 4472 4487 4517 4542 4780 4664 4766 4568 4012 3563 3393 3218 3258 3224 2904 2640 2142 1882 1413 836 724 532 715 880 886 644 582 600 502 629 765 672 641 671 689 521 455
1561 1904 1830 1688 1697 1546 1709 2159 2186 2206 2498 2654 2647 2856 2834 2764 2714 2874 2904 3037 3328 3314 3494 3448 3882 4282 4616 4638 4673 4607 4660 4695 4508 4112 3661 3290 3020 2856 3142 3090 2866 2332 1996 1726 1302 1032 592 696 824 1170 897 617 778 862 421 611 679 551 421 431 507 427 370
1557 2041 1984 1667 1604 1287 1478 2040 2328 2409 2605 2833 2910 3046 3085 2938 2915 2976 2979 2960 3204 3270 3362 3419 3554 4087 4583 4692 4552 4616 4868 4589 4184 3691 3265 2918 2869 2768 3037 2825 2740 2309 1964 1427 992 923 741 911 1045 1186 1124 668 411 325 288 566 652 591 520 539 512 460 517
1363 2036 2221 1852 1666 1516 1738 2124 2504 2760 2890 3219 3257 3222 3386 3270 3066 3034 3194 3048 2997 3260 3414 3573 3537 3882 4491 4592 4470 4508 4678 4318 3865 3410 3096 2680 2518 2959 2936 2704 2625 2353 1946 1428 928 900 1012 1151 1139 1155 818 344 409 312 521 691 671 737 506 549 601 546 579
2226 2350 2364 1926 1780 1733 1946 2524 2892 3063 3193 3522 3487 3446 3622 3509 3278 3145 3270 3308 3129 3265 3515 3602 3612 3785 4290 4515 4316 4450 4376 4154 3705 3240 3076 2922 2830 2892 2848 2671 2542 2141 1730 1248 872 894 898 1087 670 633 551 370 414 348 518 577 690 756 734 453 468 540 568
2224 2114 2348 1804 2073 2118 2463 3039 3333 3498 3757 3826 3487 3552 3708 3600 3470 3415 3628 3601 3338 3419 3650 3836 3807 3970 4421 4657 4314 4186 4180 4136 3498 3170 3032 2740 2866 2961 2765 2508 2074 1818 1526 858 667 687 328 320 465 519 397 391 523 670 704 761 764 798 796 730 676 778 972
1523 1926 1829 2049 2340 2572 2964 3359 3662 3879 4018 3817 3667 3648 3733 3672 3668 3630 3840 3858 3647 3517 3590 3863 4158 4352 4694 4770 4326 4146 4208 3922 3433 3210 2941 2746 2981 2915 2726 2442 2028 1902 1272 456 549 263 231 274 174 434 595 667 558 539 548 789 854 1411 1247 908 940 1076 1049
1772 1607 2058 2076 2588 2800 2967 3306 3793 3887 3776 3738 3641 3788 3815 3810 3716 3872 4030 4012 3867 3603 3777 4166 4475 4639 4793 4790 4429 4232 4267 4016 3478 3239 2876 2607 2794 2911 2642 2204 2059 1632 1180 848 538 423 283 231 520 678 522 614 548 394 682 876 811 800 1003 936 964 817 739
1749 1580 1768 2224 2730 2769 2990 3339 3758 3686 3688 3753 3585 3664 3697 3716 3983 3994 4129 4051 3957 3884 3981 4279 4632 4858 4900 4667 4385 4166 4071 3466 3464 3016 2662 2518 2584 2658 2466 2153 1914 1745 1658 1396 823 272 259 148 462 461 467 588 595 616 942 776 793 758 403 399 558 658 742
1816 1573 1654 2334 2859 2847 3027 3054 3462 3695 3675 3636 3578 3828 3808 4045 4028 4036 3924 4090 4192 4195 4137 4366 4857 5004 4774 4372 4015 3918 3882 3739 3594 3058 2614 2539 2478 2661 2436 2052 1930 1686 1599 960 815 747 580 536 437 183 200 70 302 849 881 807 687 277 63 9 2 308 524
1833 2093 1815 2226 2672 2778 2877 2889 3499 3686 3690 3713 3854 4084 4143 4241 4238 4188 3996 4156 4196 4220 4120 4264 4678 4738 4719 4258 4035 3605 3722 3453 3300 2878 2521 2491 2442 2435 2388 2058 1866 1738 1667 1106 923 984 816 486 488 254 136 74 315 796 820 796 506 198 42 0 0 23 539
1904 2210 2167 2463 2805 2924 2869 2935 3377 3626 3526 3730 3902 4146 4084 4333 4144 4297 4135 4179 4269 4287 4224 4199 4366 4745 4762 4467 4136 3967 3506 3082 2948 2798 2722 2596 2182 2421 2010 2138 2117 1922 1795 1371 1079 1040 950 700 450 503 556 756 908 830 708 769 417 189 19 0 0 0 142
1926 1951 2150 2339 2761 2864 2906 2963 3124 3327 3458 3827 3998 4068 3917 4038 4177 4248 4101 4141 4218 4280 4292 4455 4386 4569 4670 4553 4035 3695 3595 3092 2678 2696 2521 2346 2339 2342 1889 1990 2082 2049 1859 1598 1410 1337 1200 588 640 641 688 770 845 684 578 447 148 88 69 16 0 0 59
2218 2198 2326 2492 2884 2742 3109 2974 2916 3255 3424 3612 3737 3787 3771 3885 4001 4173 4103 4191 4310 4355 4365 4410 4332 4432 4606 4439 3924 3537 3229 2757 2706 2688 2410 2218 2208 2226 1955 1774 1930 1912 1822 1717 1654 1361 961 732 870 517 744 670 687 787 610 296 37 92 88 12 0 0 8
2066 1870 2096 2387 2798 2567 2823 2603 3043 3226 3522 3593 3544 3535 3587 3683 3638 3953 4144 4172 4244 4332 4355 4419 4258 4395 4474 4349 3854 3500 3326 3051 2737 2641 2492 2225 2153 2012 1867 1791 1810 1841 1816 1737 1664 1491 1195 764 699 443 502 521 494 298 572 72 0 70 104 51 0 0 202
1240 1659 1689 1892 2120 2393 2957 3037 3158 3302 3474 3303 3019 2846 2756 2997 3315 3945 4064 4033 3894 4264 4184 4262 4203 4344 4353 3932 3704 3234 3205 2889 2650 2560 2445 2292 2112 1924 1811 1893 1783 1779 1767 1763 1720 1614 1590 1288 828 576 482 315 240 584 377 50 192 0 0 0 0 0 360
1052 1271 1415 2095 2748 3112 2978 2789 2682 3202 2648 2686 2474 2546 2816 2986 3396 3837 4084 3789 3957 4133 4148 4129 4199 4106 4147 3958 3690 3164 2980 2784 2502 2457 2337 2144 1952 1897 1778 1685 1750 1772 1791 1723 1750 1662 1340 1052 530 492 453 228 83 440 528 217 102 136 132 103 0 14 680
1599 1890 2265 2210 2276 2274 2313 2581 2760 2882 3057 3005 2938 2953 3142 3321 3807 4036 4004 3787 3727 3725 3902 3956 4056 3988 4064 3936 3579 2993 2705 2702 2581 2423 2255 2148 1949 1678 1689 1753 1778 1768 1720 1702 1647 1668 1188 788 593 549 395 123 158 390 472 180 336 654 784 683 519 429 755
1578 1699 1939 2220 2398 2996 3700 3855 3513 3132 3243 3428 3802 3749 3765 3810 3892 3848 3508 3517 3655 3707 3832 3776 3944 3919 3992 3772 3338 2737 2636 2441 2392 2364 2205 2176 1982 1948 1866 1717 1716 1631 1642 1664 1574 1428 984 694 711 533 395 293 412 252 567 518 579 1402 849 832 734 558 786
2605 2424 2282 2369 3096 3627 3908 3567 3319 3183 3415 4144 3798 3342 3376 3383 3656 3949 4004 3985 3818 3807 3701 3764 3950 4034 3801 3635 3049 2410 2600 2411 2255 2136 2002 2038 1955 1649 1643 1648 1586 1538 1516 1501 1260 1040 847 838 610 325 203 277 193 343 632 882 1168 2221 1035 874 640 434 600
2118 2430 2790 3168 3188 2886 2915 3558 4257 4194 3948 3932 3644 3495 3679 3936 4159 4242 4221 3981 3823 3771 3599 3816 3929 3835 3711 3465 2920 2311 2404 2164 1862 1833 1890 1965 1625 1623 1565 1494 1386 1314 1228 1225 1091 988 865 661 368 233 279 276 765 1063 1226 1350 942 1281 1040 841 572 599 683
2942 2862 3028 3366 3539 3240 3194 3230 3224 3305 3494 3586 3749 3886 4073 4294 4357 4167 4009 4022 4007 3869 3880 3681 3711 3569 3450 3134 2656 2115 2305 2202 1930 1693 1630 1780 1622 1620 1527 1425 1334 1183 1042 918 779 680 651 508 668 684 966 1441 1602 2082 1826 1438 1212 715 811 577 568 546 473
2356 2525 2380 2320 2758 3010 3235 3498 3488 3441 3481 3609 3921 4098 4122 4276 3919 3939 4125 4313 3958 3644 3506 3551 3458 3070 2674 2547 2335 2342 2239 2104 1843 1520 1665 1646 1580 1512 1421 1361 1231 1084 940 768 689 648 734 800 779 832 1083 1536 1624 1341 1212 981 937 818 460 398 350 420 581
3054 2946 3006 3069 3105 3405 3619 3634 3573 3408 3385 3477 3681 3891 3944 3862 3915 4050 4317 3745 3322 3208 3264 3202 3082 2758 2578 2288 2080 2203 2120 1879 1691 1601 1674 1574 1448 1338 1307 1160 1054 1034 836 832 881 843 659 602 812 913 1308 1229 1301 1428 1095 811 866 581 475 484 588 676 690
3327 3338 3660 4010 4206 4038 3801 3741 3697 3558 3254 3144 3225 3371 3816 3925 4023 4238 3662 3136 3119 3081 3162 2860 2583 2396 2221 2090 1962 1914 1910 1851 1623 1640 1587 1519 1311 1226 1232 1022 1002 1075 1019 861 863 848 758 799 878 888 788 829 1240 1366 1032 919 800 592 628 768 821 681 708
2605 2964 3458 3946 3982 3782 3652 3366 3038 2927 2955 2894 2890 2924 3009 3296 3559 3415 2970 2809 2812 2800 2844 2532 2344 2107 1984 2110 1910 1819 1854 1814 1406 1420 1440 1367 1249 1192 1096 1015 882 1054 1038 1011 868 670 833 902 986 933 859 1667 1612 1318 1094 780 430 569 681 532 624 622 578
2492 2524 2764 3035 3095 3110 3199 3279 3251 2992 2793 2754 2658 2627 2613 2708 2778 2624 2437 2356 2410 2570 2615 2352 2202 1928 1899 1900 1719 1780 1670 1706 1515 1238 1298 1248 1194 1117 1066 1048 1074 991 900 877 918 857 997 982 1002 1030 959 1268 1253 941 1038 642 679 639 480 411 551 546 404
2466 2646 2682 2689 2898 3130 3037 2921 2830 2657 2502 2530 2683 2657 2704 2632 2509 2461 2529 2324 2340 2112 2317 2220 1919 1927 2084 1905 1780 1708 1654 1507 1397 1104 1185 1224 1162 1020 937 928 778 690 739 1077 1204 1066 1002 1074 1006 1030 956 1053 1038 883 784 610 656 820 658 969 312 1346 522
2434 2401 2344 2440 2466 2661 2738 2756 2666 2524 2562 2678 2872 2800 2744 2610 2431 2296 2159 2193 2146 2202 2107 1895 1719 1759 1737 1580 1495 1273 1262 1342 1367 1386 1158 1257 1241 1063 872 728 600 474 603 665 778 864 1020 930 1233 936 1169 1110 881 670 706 732 836 499 558 316 208 62 0
2052 2066 2172 2311 2346 2384 2594 2742 2658 2550 2589 2668 2774 2739 2610 2317 2102 2082 1776 1883 1912 1846 1850 1616 1591 1350 1408 1322 1151 1062 1089 1093 1185 1453 1181 1248 1322 1140 904 690 537 503 502 628 690 649 608 516 334 327 800 1226 445 416 498 452 491 524 367 81 0 0 0
1762 1772 1760 2037 2530 2690 2660 2591 2534 2535 2518 2511 2588 2409 2408 2046 2023 2026 1706 1762 1673 1605 1677 1612 1571 1406 1296 1117 1136 1165 1183 1223 1328 1177 1070 1268 1259 1091 819 654 589 534 478 509 456 353 337 394 430 538 530 577 554 544 530 514 467 88 0 0 0 0 0

ECMWFFLT1_con_mucape_033.txt.gz
CAPE
1270 720 399 731 2140 1920 1776 2054 2176 1927 1882 2202 2550 2460 2105 2123 2524 3112 3521 4206 4765 5216 5428 5325 4982 4763 4712 4720 4474 4334 4346 3986 3843 3922 4093 3888 3423 3155 3006 2683 2560 2488 2050 1763 1763 1648 1756 1318 1019 926 1151 864 632 736 918 846 652 465 285 331 276 356 413
1131 543 509 1159 1923 2164 1902 1946 2212 2016 1980 2176 2344 2518 2254 2170 2641 2950 3342 4078 4800 5068 5450 5558 5434 5236 5192 4844 4686 4550 4489 4204 3990 3936 4011 4024 3844 3496 3232 3140 2739 2644 2547 2166 1962 1806 1525 1359 1034 980 1046 858 616 871 852 848 780 578 337 389 428 506 340
464 1123 1108 1485 2204 2415 2260 1977 2286 2346 2234 2061 2292 2335 2407 2794 2910 3034 3352 4028 4852 5060 5475 5633 5468 5280 5104 5185 4917 4924 4636 4452 4212 4230 4124 3904 3838 3486 3470 3294 3045 2780 2678 2472 2236 1763 1446 1532 1195 964 927 852 686 847 844 898 931 694 540 429 446 444 270
58 456 1353 1841 2270 2578 2568 2346 2391 2520 2421 2337 2466 2798 3084 3277 3240 3231 3354 4223 4893 5086 5306 5566 5562 5379 5277 5148 4942 4976 4884 4651 4310 4250 4120 3891 3819 3831 3534 3453 3292 3004 2832 2684 2223 1646 1356 1366 1252 1084 948 914 864 934 841 739 629 794 741 559 408 361 299
443 924 1492 2013 2130 2507 2675 2620 2699 2726 2510 2563 2881 3456 3441 3340 3554 3468 3662 4280 4671 4924 5048 5398 5294 5206 5308 5344 5131 4926 5030 4936 4620 4408 4323 4089 3897 3992 3844 3354 3419 3151 2755 2762 2264 1765 1586 1413 1434 1165 962 941 1083 862 917 790 656 692 693 586 555 422 416
310 772 952 1854 2157 2304 2628 2798 2870 2824 2700 2653 2952 3427 3538 3581 3640 3567 3732 4207 4356 4701 4964 5171 5183 5182 5422 5218 4930 4808 5002 5145 4998 4750 4554 4374 4151 3906 3949 3806 3413 3438 2770 2870 2172 1820 1672 1513 1376 1156 908 717 859 717 782 771 727 737 897 810 842 578 345
28 412 1224 1929 2198 2368 2469 2768 2914 2914 2745 2599 2781 3376 3452 3411 3541 3252 3376 3840 4061 4567 4692 4865 4941 5112 5334 5271 5172 5150 5180 5134 5144 4899 4724 4497 4303 4223 4205 4121 3781 3532 2895 2898 2412 2058 1833 1517 1022 924 916 792 811 772 668 1008 1051 928 1037 1059 937 997 883
0 130 1558 1935 2008 2212 2505 2623 2789 2930 2881 2598 2567 3266 3294 3184 3118 2854 3035 3432 3886 4005 4290 4128 4721 5216 5199 5332 5206 5030 5155 5090 5191 5006 4890 4652 4554 4395 4302 4151 3812 3546 3311 2899 2631 2325 1995 1552 815 866 883 887 816 700 534 1163 1160 745 785 814 764 1010 697
10 1002 1841 1737 1810 1815 2269 2732 2764 2785 3002 2937 2802 3260 3219 3085 2833 2790 2825 3213 3705 3611 3973 3583 4196 4852 5294 5136 5222 5166 5172 5054 5262 5328 4906 4820 4524 4267 4084 3882 3636 3500 3324 2905 2517 2520 2143 1430 801 954 948 969 1075 673 909 900 930 817 822 861 864 919 602
1578 2455 2460 1936 1612 1416 1834 2543 3017 3397 3308 3570 3510 3731 3426 3230 3056 2762 2739 3039 3418 3444 3642 3490 3843 4506 5203 5276 5253 5250 5294 5126 5106 5072 4748 4578 4652 4267 3934 3434 3406 3340 3261 2902 2285 2443 1922 1369 846 842 1220 966 1179 734 349 718 913 845 851 774 688 804 660
30 1161 3012 2342 1897 1799 1962 2373 3099 3808 3959 4220 4144 3410 3822 3455 3155 2948 3104 3072 3148 3294 3564 3452 3504 4215 5052 5153 4906 5076 5371 5073 4907 5032 4812 4546 4326 4177 3600 3141 3220 3284 3102 2926 2720 2404 1718 1332 488 949 1327 1074 759 847 848 904 703 772 506 556 619 712 613
2131 2782 3487 2765 2256 2128 2158 3248 3808 4270 4205 4522 3771 3557 4226 4148 3411 3336 3381 3252 3039 3290 3583 3529 3547 3963 4795 4994 4696 4981 5044 5099 4849 4929 4975 4804 4233 3878 3458 3064 3230 3248 3257 3323 2826 2288 1640 1062 451 1243 1449 988 1010 934 749 610 706 825 686 469 717 907 672
2954 3504 3738 2863 2614 2402 2924 3678 3928 3890 4147 4026 3717 3704 3957 3682 3556 3421 3833 3631 3075 3243 3551 3858 3763 4584 4850 5086 4681 4768 5105 5182 4976 4957 4931 4821 4296 3802 3280 3133 3111 3120 2924 2942 2736 2328 1590 1034 1069 1613 1502 989 692 462 489 371 700 890 914 731 739 864 709
3623 3639 3588 3072 2712 2616 2813 3202 3766 4022 4109 4100 3963 3946 4088 4084 3854 3786 4010 3843 3433 3338 3626 3912 4259 4965 5149 5206 4862 5050 5120 5316 5063 5074 5041 4742 4460 3839 3456 3408 3384 3502 2927 2836 2189 2117 1473 1150 1203 1590 1318 374 441 376 322 615 934 1064 978 856 847 736 469
3078 3282 3384 2955 2889 2949 3099 3215 4126 4252 4230 4410 4100 4041 4232 4203 4113 4152 4257 4025 3878 3472 3791 4266 4839 4707 4905 5284 5265 5266 5394 5528 5438 5206 4844 4538 4380 4044 3747 3620 3626 3630 3502 3043 2530 2092 1628 1319 1360 1114 471 366 326 408 548 702 720 638 830 740 748 476 773
2520 2595 3008 2987 3222 3135 3551 3725 4438 4696 4638 4594 4170 4352 4403 4503 4432 4285 4364 4334 3880 4012 4249 4691 4880 4821 5110 5351 5395 5422 5519 5706 5488 5154 4862 4582 4400 4271 4068 3897 3794 3587 3578 3198 2647 2188 1719 1336 722 712 580 582 490 434 444 673 499 720 535 866 1009 995 759
44 207 348 1900 3683 3496 3774 4002 4785 4988 4663 4498 4360 4481 4724 4802 4706 4454 4229 4303 4220 4558 4447 4561 5035 5074 5091 5330 5586 5706 5679 5532 5460 5127 4745 4484 4344 4316 4125 3864 3680 3672 3664 3304 3022 2180 1882 961 950 878 878 858 704 497 599 374 778 129 644 906 728 854 849
0 0 50 124 1478 3727 4058 4262 4934 5088 4919 4773 4567 4713 4744 5016 4774 4762 4656 4760 4513 4178 4317 4789 5104 5162 5320 5736 5850 5686 5547 5478 5264 4958 4654 4286 4081 3827 3722 3658 3543 3613 3632 3235 2926 2164 1466 1271 1248 1212 1072 959 860 690 582 389 250 85 445 525 386 547 778
0 6 1 312 1692 3902 4108 4176 4604 5206 5128 4998 4672 4724 4709 4933 4869 4980 4778 5031 4988 4632 4557 5026 5320 5540 5684 5745 5900 5580 5494 5289 5090 4827 4501 4150 3896 3755 3076 3314 3394 3388 3258 2866 2546 1991 1657 1652 1598 1576 1409 1274 1196 1046 693 598 770 292 46 11 0 155 254
0 0 0 0 468 1176 4057 4147 4050 4855 4963 4979 4823 4629 4708 5072 4997 5004 5026 5123 5190 4848 5002 5269 5486 5785 5932 5918 5704 5577 5263 4976 4525 4632 4239 4253 3946 3554 3559 3351 3422 3318 3112 2888 2782 2241 2124 1933 1958 1944 1735 1552 1483 1217 989 883 826 337 310 78 0 34 125
93 159 79 219 1234 902 3176 4368 4137 4748 4831 4619 4493 4640 4658 4911 5184 5105 5125 5331 5269 5112 5193 5206 5618 5993 6026 5833 5691 5288 5098 4731 4467 4230 4329 4169 3747 3512 3368 3265 3341 3399 3209 2960 2680 2372 2147 2009 2012 1969 1773 1597 1495 1189 908 820 476 368 282 308 111 8 13
12 6 0 398 1829 3170 4099 4108 4145 4616 4701 4404 4325 4580 4794 4949 5106 5104 5425 5466 5428 5160 5257 5392 5686 5968 5972 5773 5581 5292 4799 4734 4251 3599 4097 3756 3548 3410 3332 3299 3310 3157 3144 2976 2548 2188 1849 1737 1886 1904 1790 1654 1579 1438 1117 723 640 495 452 329 18 0 129
0 0 2 1232 1198 3226 4717 4356 4481 4616 4652 4421 4671 4645 4699 4952 5164 5246 5430 5511 5336 5328 5416 5498 5586 5881 5874 5734 5559 5308 4964 4666 4104 3692 3694 3628 3494 3284 3114 3074 3069 2983 2997 2734 2450 2034 1796 1602 1786 1865 1752 1692 1570 1352 962 589 600 509 444 248 0 0 341
153 194 477 1428 2962 3937 4891 4433 4447 4520 4211 4586 4578 4469 4903 4930 5236 5382 5523 5333 5396 5500 5583 5526 5724 5767 5900 5852 5444 5195 4878 4616 4013 3500 3473 3566 3398 3127 2792 2777 2840 2829 2682 2510 2065 1788 1658 1697 1804 1829 1817 1667 1574 1354 858 734 614 526 422 0 0 7 213
150 61 662 2253 3094 3931 4113 4049 4110 4310 4539 4840 4512 4495 4835 5084 5277 5317 5355 5348 5188 5138 5198 5188 5240 5386 5661 5434 5260 5002 4622 4068 3752 3479 3155 3137 3134 2883 2796 2810 2774 2614 2394 2211 1958 1706 1751 1802 1779 1887 1747 1714 1620 1276 948 709 1317 406 147 0 0 10 430
586 158 530 2001 2467 3588 3935 3931 4216 4536 4661 4406 4546 4564 4740 4782 5267 5272 5035 4495 4532 4542 4717 4798 4933 5276 5441 5263 5002 4687 4231 3832 3616 3314 2953 2850 3032 2940 2880 2782 2545 2474 1998 1780 1620 1655 1758 1810 1867 1916 1649 1732 1711 1309 775 529 460 0 0 0 0 0 561
1006 648 1381 2401 3097 3796 4208 4542 4754 4424 4502 4395 4044 3770 4080 4877 4953 4721 4340 4421 4627 4573 4760 4910 5190 5289 5336 4990 4834 4444 3896 3417 3354 3020 2686 2832 2838 2811 2433 2300 2433 1923 1856 1628 1552 1615 1692 1732 1791 1704 1426 1264 1097 833 600 620 560 622 345 210 0 0 148
1697 2390 2984 2995 3768 3775 3960 3933 3861 3651 3214 3483 3580 3816 4406 4876 4908 4429 4506 4537 4550 4737 4718 5096 5097 5255 5112 4754 4360 3974 3442 3174 3050 2817 2636 2705 2883 2698 2544 2460 2410 2082 1667 1491 1592 1604 1636 1667 1636 1567 1262 1026 1039 870 722 536 251 2371 292 271 33 138 543
2658 2554 2447 3091 3270 3598 3521 3489 3268 3276 4152 4040 4118 4447 4574 4632 4542 4546 4544 4695 4612 4698 4915 5063 5002 4951 4698 4349 4145 3568 3255 2916 2722 2359 2703 2706 2625 2566 2461 2137 1790 1754 1471 1423 1439 1408 1463 1381 1313 1252 1203 927 841 721 607 1067 1269 1380 718 698 746 679 635
2939 3396 4410 4088 3830 3418 3167 3754 4288 4169 3808 3948 4287 4494 4783 5041 4745 4632 4733 4688 4736 4806 4772 4692 4561 4512 4346 3953 3896 3457 3096 2751 2413 2425 2318 2378 2510 2637 2210 1739 1540 1449 1422 1436 1307 1307 1238 1168 1103 1174 1028 795 758 702 620 1560 1448 701 491 481 614 565 368
3566 3311 2891 2542 2886 3698 4054 4222 4378 4364 4494 4649 4792 4660 4570 4527 4734 4768 4748 4658 4500 4333 4417 4284 4039 3750 3711 3690 3581 3198 2900 2566 2367 2190 2223 2295 2406 2292 2095 1771 1385 1464 1389 1284 1247 1214 1031 886 892 940 948 874 736 936 1129 810 956 458 270 366 0 247 205
3692 3950 3765 3831 4194 4179 4236 4155 4155 4300 4302 4190 4124 4363 4693 4829 4848 4640 4416 4226 4158 4245 4124 3837 3715 3649 3521 3473 3212 2938 2594 2438 2306 2316 2159 2207 2234 1970 1934 1679 1330 1253 1258 1212 1129 1034 1001 988 815 824 790 708 1205 884 496 702 937 355 344 304 322 97 0
3347 3570 3763 3816 3758 3606 3424 3229 3418 3827 4070 4148 3993 3898 4023 4007 3833 3954 4084 4084 4011 3940 3846 3768 3598 3504 3340 3185 2874 2656 2368 2168 2029 2026 2092 2039 1841 1836 1575 1236 1200 1190 1141 1110 958 1116 1118 884 770 756 700 548 684 979 1140 1365 1060 564 252 313 314 418 432
3778 3490 3304 3274 3333 3341 3396 3441 3593 3688 3761 3872 4045 4071 3806 3556 3577 3708 3551 3426 3412 3438 3426 3267 3146 2980 2892 2586 2417 2256 2070 2031 2082 2078 1769 1904 1670 1388 1620 1492 1360 1382 1462 1358 1337 1248 948 927 811 653 605 786 940 1309 916 854 975 747 445 317 389 532 516
3396 3557 3400 3513 3619 3770 3846 3758 3644 3565 3519 3512 3545 3516 3422 3336 3242 3231 3312 3364 3389 3192 3119 2890 2598 2558 2594 2410 2030 1902 1867 1987 2162 1835 1720 1424 1255 1226 1283 1197 1290 1448 1531 1209 1408 1700 942 904 734 599 522 697 847 980 1065 959 910 885 515 460 406 248 332
2499 2778 2971 3036 2936 3046 3183 3261 3204 3022 2858 2973 3082 3130 3151 3102 3070 3002 3042 3199 3074 3001 2857 2548 2454 2479 2200 2034 1893 1833 1716 1752 1884 1740 1573 1348 1164 1109 1073 1009 1042 1062 1094 1100 1019 902 791 820 748 685 540 490 1304 1299 1088 1144 1151 667 441 431 328 311 197
2065 2077 2479 2724 2948 2998 3108 3242 3324 3300 3298 3108 2986 2957 2818 2705 2542 2544 2540 2870 2921 2867 2797 2530 2399 2205 1990 1805 1673 1476 1586 1650 1688 1714 1734 1328 1228 1141 1057 998 982 971 947 934 911 768 658 638 655 550 602 1327 1272 668 825 974 838 601 447 477 474 467 360
1894 2138 2161 2544 2730 2760 2736 2825 2944 2942 2953 2906 2764 2565 2481 2256 2444 2580 2464 2728 2768 2886 2834 2714 2496 2382 1934 1660 1322 2028 1886 1668 1772 1966 1474 1262 1187 1216 1192 1153 1095 1009 974 970 914 812 758 710 649 587 880 821 421 187 219 568 523 437 109 426 418 408 162

ECMWFFLT1_con_mucape_036.txt.gz
CAPE
820 983 792 892 1502 1470 1574 2132 2022 1822 2185 2592 2665 2826 2676 2979 3028 3234 3596 4422 4703 5026 5007 4699 4458 4486 4478 4542 4625 4483 4264 4328 4422 4361 4415 4318 4068 3922 3791 3590 3292 3078 2510 2554 2060 2315 2103 2341 2106 1819 1647 1456 1129 1419 1168 1395 1236 1244 876 758 1042 1038 588
808 879 667 611 1266 1508 1240 1476 2167 2224 2246 2649 2704 2835 2590 2816 3048 3247 3574 4421 4797 5017 5133 4778 4541 4603 4565 4628 4456 4448 4309 4305 4370 4315 4371 4456 4312 4380 3861 3562 3330 3100 2941 2264 2403 2556 2092 2256 1909 1899 1630 1412 1155 1408 1296 1267 1282 1041 848 820 842 984 918
450 264 451 572 738 1453 1606 1759 2075 1731 2201 2494 2544 2666 2666 2814 3006 3333 3625 4289 4828 5070 5109 4901 4617 4573 4735 4760 4481 4445 4440 4292 4348 4361 4289 4361 4415 3758 3776 3819 3433 3174 2997 2601 2726 2283 2243 1930 1920 1834 1676 1230 992 1370 1356 1150 1188 956 1028 775 964 1016 962
595 906 772 838 1130 1720 1626 1356 1449 2534 2481 2160 2208 2360 2788 3054 3010 3316 3621 4128 4786 5023 5177 5097 4785 4659 4833 4888 4708 4570 4546 4493 4335 4016 3861 4075 4235 3883 3810 3860 3423 3167 2957 2799 2562 2037 1792 1887 1724 1682 1787 1321 1163 1216 1179 1076 905 963 1449 847 1049 987 1140
1374 903 762 1113 980 1474 1601 1563 1880 2534 2383 1931 2101 2585 2990 3086 3050 3231 3637 3948 4211 4756 5158 5208 4679 4771 4751 4750 4734 4588 4556 4614 4417 4050 3870 4041 4266 4168 3889 3341 3452 2880 2914 2726 2594 2316 2019 1955 1491 1648 1488 1449 1193 1193 1202 1228 941 1128 1080 1354 1056 1044 1035
1541 1709 1486 1014 605 1115 1638 1646 1601 1844 2210 2067 2260 2890 2966 2804 2601 2594 3194 3882 4303 4752 5229 5465 5299 5131 4863 4702 4684 4603 4652 4800 4578 4355 4179 4149 4315 4232 3909 3641 3429 3106 2970 2870 2744 2474 2158 1801 1566 1420 1255 1205 849 883 1035 1126 1043 1033 1138 1423 1362 750 739
1011 1268 1274 1328 1446 1330 1472 1510 1520 1875 2255 2250 1981 2719 2693 2489 2420 2286 2620 3314 3856 4733 4963 5279 5246 5140 4811 4791 4825 4899 4856 4862 4719 4472 4395 4360 4239 4259 4033 3864 3594 3319 3095 3151 2820 2408 2086 1774 1697 1390 1245 994 948 984 892 1035 1090 935 1141 1159 1096 1289 824
261 429 1003 988 1272 1038 1421 2187 2435 2113 2058 2568 2099 2182 2511 2727 2267 2068 2214 2616 3258 3900 4573 4757 5345 5218 4827 5056 5098 4898 4899 4766 4709 4503 4339 4255 4228 4130 4216 4098 3844 3636 3481 3249 3076 2440 1938 1784 1782 1568 1387 971 1152 1096 1142 1309 1143 1080 1102 1154 1026 948 813
357 824 1530 1335 1103 1154 1458 1940 2526 2489 2713 2845 2606 2589 2635 2571 2285 2162 2297 2600 3204 3959 4409 4636 5089 5122 5156 5166 5095 4885 4817 4969 4836 4519 4342 4200 4186 3769 3768 4091 4048 3903 3692 3284 3020 2545 2013 1888 1748 1692 1420 968 1166 1309 1214 1343 1108 1034 1146 1176 1060 800 820
515 1074 1514 1253 719 584 1087 1723 2491 3107 3255 3131 3009 2998 2878 2937 2787 2558 2621 2722 3174 4019 4614 4585 4857 4966 5271 5124 5006 4856 4944 5065 5026 4538 4132 3860 4002 3657 3454 3381 3966 3931 3798 3344 3022 2666 2290 2058 1811 1766 1419 1068 1100 1374 1110 1248 1187 1157 1062 1158 941 658 766
878 1376 1492 1184 1304 1538 1806 1706 2366 3425 3724 3490 3366 3307 3512 3490 3448 3177 3128 2907 3078 3690 4228 4289 4344 4641 5004 4861 4457 4603 4877 4887 4932 4822 4436 4085 3922 3763 3371 3387 3760 3865 3628 3335 2969 2779 2449 2204 1782 1625 1428 1230 1206 1273 970 1006 1286 1205 935 1182 1000 901 971
1462 1759 2182 1935 2684 2474 2253 2249 2817 3874 4296 4081 3679 3696 3953 3849 3679 3453 3353 3142 3229 3252 3797 3905 3872 4516 4979 5068 4985 5016 5129 4805 4514 4602 4635 4342 4087 3788 3592 3482 4004 3910 3764 3508 3121 2954 2545 2412 1589 1477 1323 1280 1393 1119 978 1014 1130 1199 949 985 1025 1078 1034
3120 2709 3326 3030 3142 2786 2612 3797 4267 4045 4625 4514 3915 3699 4062 3969 3742 3486 3522 3208 3011 3309 3483 3883 3676 4329 5259 5180 4441 4922 5126 4889 4636 4783 4688 4556 4326 4143 4059 3557 3541 3470 3375 3156 2896 2737 2481 2495 1788 1385 1292 1249 1476 1112 1032 1063 1158 1128 960 739 697 905 1030
4190 3566 3808 4016 3848 4045 3858 5162 5147 4660 4774 4873 4359 3908 4149 4082 3785 3606 3516 3155 2771 3140 3339 3724 3783 4378 5262 5213 4732 4781 4993 5099 4548 4646 4795 4755 4603 4413 4254 3888 3670 3768 3505 3328 3151 2738 2463 2418 1889 1540 1179 1321 1504 1310 933 801 1100 1045 939 711 640 877 1048
4212 3751 4078 3923 4050 4183 4329 5170 5970 5461 5164 5221 4611 4136 4226 4215 3952 3793 3778 3350 2907 2771 3281 3762 3978 4537 5058 5284 5094 5108 5176 5302 5065 4731 4931 4998 4866 4667 4615 4457 4041 3799 3783 3497 3198 2700 2438 2267 1957 1660 1424 1497 1461 1244 842 654 716 913 790 540 552 851 1050
1807 2093 3587 3674 4018 4158 4600 4936 6222 5942 5645 5518 4904 4433 4218 4324 4302 4003 4086 3844 3452 3108 3478 4054 4170 4550 5096 5341 5321 5351 5491 5568 5302 5071 5164 5258 5180 4965 4782 4568 4236 3866 3961 3762 3394 3189 2858 2386 2172 1894 1657 1676 1368 1152 887 874 782 627 535 402 563 730 877
564 557 2878 4113 4500 4131 4219 4540 5738 5936 5567 5535 5081 4837 4452 4656 4647 4360 3880 4180 3824 3677 4060 4463 4535 4701 5090 5344 5490 5645 5749 5787 5671 5548 5449 5492 5503 5386 4956 4543 4280 4042 4214 4038 3662 3317 3122 2774 2082 1994 1812 1503 1260 1090 1010 1074 908 795 734 487 519 690 800
185 304 1319 3277 4262 3634 4055 4334 5118 5462 5509 5384 5350 5181 4909 5078 5030 4680 4120 4258 4056 3952 4655 4814 4721 4812 5135 5432 5722 5900 5938 5977 5973 5861 5716 5719 5602 5476 5078 4619 4376 4302 4370 4344 4064 3632 3375 2946 2154 2014 1824 1655 1530 1390 1314 1369 1178 1072 625 653 432 369 698
260 1276 1571 3033 4178 4078 4090 3812 4512 5285 5053 5095 5141 5207 5051 5205 5224 4931 4541 4596 4480 4369 4874 4984 4853 5091 5309 5745 5976 6079 6203 6106 6130 6081 6017 5818 5592 5407 5090 4818 4655 4588 4398 4265 4273 3971 3444 2567 2323 2097 1880 1798 1735 1618 1559 1501 1457 1319 1017 878 701 397 448
128 115 503 3014 3930 4447 4127 4032 4367 5203 5417 5286 5338 4955 4728 4830 5108 5053 4929 5156 4957 4636 5074 5286 5269 5318 5472 6061 6255 6332 6334 6378 6286 6120 5927 5669 5499 5270 4969 4739 4505 4255 3996 3973 4052 4075 3551 2755 2547 2274 2069 1971 1862 1750 1585 1513 1448 1405 1410 1082 830 510 421
1032 1671 1032 762 4384 3959 4670 4932 5137 5913 5754 5591 5324 5080 4663 5064 5299 5390 5316 5462 5237 4800 5044 5394 5529 5646 5819 6249 6417 6472 6454 6418 6172 5872 5729 5405 5190 4952 4746 4534 4292 4051 3857 3714 3840 3976 3573 2945 2691 2458 2281 2106 1916 1783 1710 1755 1659 1503 1428 1280 899 630 390
0 9 142 430 1334 5354 5429 5217 5433 5687 5959 5208 5430 4778 4655 5040 4858 5362 5440 5491 5329 4864 5177 5863 5930 5991 6008 6429 6440 6492 6364 6292 6042 5698 5404 5123 4811 4641 4389 4137 4066 3948 3965 3678 3640 3356 3044 2869 2690 2570 2405 2196 1990 1837 1855 1609 1527 1448 1484 1192 616 576 426
0 0 0 135 231 1605 5431 5407 5318 5515 6036 5682 5215 4889 4718 4836 4831 5376 5534 5490 5180 4996 5532 6004 6185 6158 6083 6338 6421 6398 6290 6132 5835 5524 5273 4954 4618 4354 4135 4053 3966 3977 4073 3758 3574 3108 3029 2826 2662 2566 2496 2310 2091 2023 1682 1478 1408 1445 1579 1364 1038 507 533
0 0 0 0 23 67 5128 5647 5456 5616 5956 5770 5374 4951 4890 4963 5245 5474 5458 5500 5244 5106 5492 5931 6242 6352 6430 6434 6362 6227 5974 5703 5402 5117 5059 4811 4480 4210 4008 3770 3723 3892 3888 3685 3470 3075 2815 2643 2548 2534 2492 2354 2202 1922 1521 1419 1442 1492 1545 1230 863 708 603
0 0 0 0 172 183 1609 5453 5204 5969 5755 5635 5300 4974 5204 5141 5540 5706 5853 5806 5141 4835 5148 5674 6139 6456 6392 6358 6255 5999 5716 5406 5031 4704 4581 4344 4084 3772 3796 3702 3648 3628 3520 3344 3257 3004 2724 2535 2508 2504 2426 2330 2117 1707 1411 1376 1371 1448 1491 1252 828 682 619
976 210 6 104 308 5731 6660 5895 5700 5622 5529 5469 5278 5040 5533 5406 5852 5672 5842 5329 4858 5029 5567 5816 6185 6131 6194 6275 6138 5616 5340 4948 4590 4347 3926 3759 3820 3813 3770 3372 3218 3431 3328 3066 2934 2777 2524 2342 2353 2341 2230 2042 1754 1362 1064 1058 1228 1291 1376 1078 823 700 612
1343 882 848 195 858 5246 6180 5882 5916 5325 5029 5224 5392 5045 5166 5431 5736 5915 5729 5781 5515 5488 5589 5910 6267 6282 6208 5982 5521 5236 4942 4686 4387 4102 3839 3604 3619 3470 3289 3099 3081 3057 3125 2907 2477 2481 2324 2114 2112 2066 1887 1696 1447 1083 926 1247 1361 1206 1074 1039 874 659 537
1822 2013 386 225 3442 5238 5468 4815 5399 5097 4672 5736 5504 4826 5082 5744 5957 6084 5913 5766 5803 5848 5678 6140 6188 6018 5826 5482 5119 4743 4488 4302 4235 3888 3595 3601 3454 3504 3416 3326 3213 3023 2832 2486 2331 2212 2098 1948 1878 1847 1666 1442 1284 1386 1463 1512 1518 1187 1146 1103 961 766 548
2603 2269 3336 5449 5241 4763 4418 4430 4788 4386 4562 4831 4795 5110 5732 5925 5931 5755 5624 5824 5829 5818 5945 5800 5778 5613 5417 5136 4940 4471 4216 4041 3592 3424 3314 3368 3356 3353 3307 3135 3087 2681 2676 2220 1972 1896 1890 1903 1784 1654 1506 1478 1397 1412 1552 1462 1258 1162 1136 1049 890 657 578
2737 2570 2238 3525 4095 4009 3907 4756 4971 4994 5168 4803 5050 5468 5670 5855 5409 5300 5395 5765 5721 5674 5508 5444 5329 5289 5067 4542 4208 3859 3452 3404 3339 3309 3179 3234 3244 3330 3315 3107 3089 2550 2335 2279 1889 1818 1683 1505 1482 1442 1468 1542 1465 1436 1267 1146 1144 1036 995 929 887 796 656
2726 2504 2822 4272 3854 4277 4726 5011 5178 5120 4994 5197 5442 5562 5500 5347 5105 5096 5492 5527 5364 5251 5224 5142 4970 4700 4373 4011 3680 3336 3238 3171 3085 3120 3186 3205 3076 3249 3158 2878 2622 2287 2011 1873 1688 1525 1361 1266 1266 1218 1279 1291 1316 1202 1074 1968 1049 854 826 774 637 516 382
3048 3310 3757 3819 4166 4893 4644 4776 4748 4586 4969 5277 5296 5158 5106 5312 5331 5087 5215 5158 5067 5155 4922 4642 4424 4235 4094 3758 3477 3173 2993 2845 2580 2593 2593 2834 3018 3095 2800 2476 2222 2092 1893 1765 1628 1456 1356 1311 1222 1189 1178 1088 1076 974 1252 1210 784 727 673 617 535 458 444
2650 2854 2520 2590 4265 4629 4782 4693 4433 4560 4736 4954 5150 5298 5221 4910 4716 4792 4774 4657 4544 4542 4524 4255 4122 3962 3812 3591 3336 3084 2818 2595 2328 2298 2382 2655 2750 2807 2674 2459 2178 1918 1694 1577 1540 1392 1316 1359 1192 1041 953 955 934 1398 1218 1115 654 583 544 462 474 468 605
2654 2987 2788 2866 3123 3148 3178 3074 3786 4015 4168 4168 4473 4458 4415 4259 4216 4086 4210 3956 3872 3905 3929 3850 3702 3624 3522 3189 3076 2982 2919 2676 2571 2220 1996 2056 2221 2324 2297 2110 1882 1777 1624 1417 1296 1225 1134 1147 1064 913 864 844 1053 1173 1100 1038 638 512 448 448 375 376 310
2081 2204 2328 2429 2207 2417 2458 2330 2657 2800 3038 3264 3472 3852 3943 3935 3726 3688 3892 3854 4016 4057 3851 3700 3461 3375 3179 2976 2750 2640 2548 2384 2346 2215 1953 1858 1835 1819 1793 1699 1602 1655 1878 1544 1084 1633 1882 1596 1433 1122 864 823 798 929 1122 956 660 496 455 440 286 189 194
1627 1854 2033 1986 2444 2423 2428 2404 2362 2534 2798 3586 3645 3698 3789 3784 3890 3798 3734 3739 3645 3514 3401 3213 2906 2653 2356 2233 1982 1852 2073 2097 1723 1583 1728 1748 1618 1525 1509 1473 1344 1283 1208 1297 1194 1184 1405 1310 1343 1374 1076 1201 882 1384 854 888 825 433 284 215 128 0 0
1284 1474 1708 1848 1928 2130 2042 2280 2666 2812 2936 3077 3332 3529 3633 3613 3050 3179 2884 3101 3155 3064 3033 2899 2658 2252 1983 1876 1690 1548 1886 1830 1718 1597 1538 1592 1541 1395 1352 1376 1358 1325 1232 1216 1260 1270 1334 1329 1184 1081 953 809 696 594 468 497 428 24 252 205 11 9 261
961 1370 1681 1959 2371 2571 2584 2620 2607 2713 2878 2933 2882 2819 2950 2558 2948 3181 2845 2978 2770 2856 3075 2950 2847 2436 1794 1602 1796 1650 1930 1908 2022 1518 1486 1516 1467 1304 1231 1248 1286 1216 1183 1204 1222 1213 1232 1236 1099 1000 904 780 656 532 47 0 479 558 201 151 139 98 67

ECMWFFLT1_con_mucape_042.txt.gz
CAPE
56 63 36 25 24 61 161 204 149 134 247 367 400 423 679 1025 1424 1732 1830 1774 1914 2056 2130 2003 1946 2114 2182 2195 2197 2162 2051 1980 1944 2023 2115 2070 1940 1712 1866 1900 1805 1881 1982 1984 1975 1960 1910 1862 1822 1735 1406 1189 1026 1039 1072 1007 770 172 9 18 8 23 8
228 102 78 72 77 49 79 184 186 170 296 445 489 498 662 940 1273 1668 1916 1931 1921 2034 2269 2256 2155 2081 2133 2174 2192 2225 2174 2092 2067 2099 2144 2150 2096 1941 1860 1837 1785 1759 1725 1772 1774 1838 1899 1877 1788 1790 1517 1142 1055 964 876 721 437 28 12 20 20 17 11
90 116 110 95 150 109 57 108 202 208 286 499 609 660 753 924 1184 1547 1882 2047 2025 2032 2229 2371 2356 2215 2159 2148 2156 2210 2239 2206 2193 2221 2232 2207 2217 2167 2052 1900 1822 1785 1730 1706 1669 1699 1797 1757 1531 1478 1294 1107 1080 943 787 583 271 73 18 29 44 32 8
120 102 142 305 123 156 129 120 234 243 268 493 706 792 864 986 1136 1437 1780 2057 2130 2114 2195 2370 2461 2398 2295 2209 2160 2167 2231 2269 2278 2314 2336 2266 2250 2284 2227 2083 1941 1855 1783 1692 1643 1579 1600 1559 1377 1268 1190 1109 1095 912 783 557 8 72 43 42 21 17 9
382 357 354 368 388 362 270 204 252 320 306 441 762 899 977 1084 1190 1389 1681 2009 2171 2204 2238 2363 2479 2509 2453 2348 2260 2199 2213 2300 2366 2399 2422 2371 2289 2330 2364 2282 2129 2002 1886 1610 1557 1450 1419 1346 1309 1275 1205 1136 1118 960 686 8 2 38 34 49 19 13 10
368 437 426 428 420 412 395 358 306 393 443 451 775 972 1065 1206 1324 1445 1649 2018 2212 2271 2306 2367 2461 2547 2548 2494 2423 2348 2283 2304 2402 2461 2491 2478 2391 2349 2404 2412 2273 2144 1933 1664 1484 1423 1382 1390 1390 1310 1253 1170 1036 864 580 41 9 37 3 19 41 60 23
74 184 411 441 454 450 438 413 450 484 522 565 779 1048 1177 1309 1464 1576 1745 2026 2260 2369 2402 2429 2480 2545 2594 2583 2554 2520 2456 2413 2412 2504 2533 2567 2490 2386 2378 2400 2342 2218 2031 1772 1601 1467 1538 1383 1382 1318 1234 1156 1003 861 624 65 37 67 0 2 24 52 49
88 124 150 433 468 494 547 536 549 578 661 718 814 1114 1276 1397 1550 1695 1872 2091 2356 2483 2513 2556 2548 2575 2618 2638 2642 2644 2636 2581 2519 2527 2563 2599 2600 2500 2396 2374 2313 2218 2064 1869 1695 1604 1573 1514 1413 1392 1287 1128 933 838 672 75 66 88 32 0 4 11 66
74 135 166 201 440 466 495 582 651 682 722 835 948 1186 1367 1478 1640 1777 1942 2169 2457 2600 2687 2725 2726 2700 2681 2677 2690 2715 2745 2740 2673 2616 2622 2629 2665 2640 2518 2430 2314 2142 2000 1866 1738 1666 1598 1581 1506 1322 1179 980 837 728 638 532 128 96 94 22 0 0 21
244 307 159 242 461 521 497 494 640 796 831 896 1048 1264 1436 1552 1695 1820 1945 2200 2501 2695 2825 2918 2943 2905 2832 2772 2739 2742 2787 2839 2817 2745 2697 2677 2688 2716 2690 2556 2422 2242 2033 1928 1827 1750 1710 1663 1544 1280 1021 856 755 696 640 604 492 152 116 88 10 0 5
208 253 279 431 380 344 296 545 692 924 965 959 1064 1319 1519 1629 1743 1850 1954 2147 2476 2722 2900 3049 3124 3114 3023 2934 2869 2810 2816 2867 2887 2837 2771 2740 2705 2727 2766 2721 2585 2412 2226 2073 1976 1906 1838 1750 1611 1309 988 857 775 729 681 617 507 202 108 131 92 22 10
234 229 155 238 442 461 502 334 753 976 1097 1061 1087 1304 1550 1701 1789 1886 1982 2090 2343 2675 2930 3103 3223 3253 3177 3096 3012 2946 2884 2898 2912 2895 2834 2777 2730 2716 2761 2778 2725 2575 2420 2272 2144 2062 1972 1868 1703 1474 1212 966 836 773 706 615 503 258 114 117 178 195 195
290 297 170 295 491 486 482 546 708 940 1164 1213 1182 1282 1539 1702 1796 1898 1992 2077 2206 2513 2884 3087 3233 3314 3284 3208 3125 3051 2997 2951 2937 2930 2884 2811 2762 2728 2738 2780 2746 2665 2579 2450 2304 2158 2078 1970 1812 1574 1370 1202 1020 887 756 646 561 450 203 203 208 242 280
388 279 110 390 508 532 540 565 614 742 1027 1255 1301 1327 1528 1666 1763 1866 1973 2075 2166 2352 2710 3011 3200 3338 3348 3286 3200 3134 3080 3014 2966 2932 2903 2860 2805 2716 2687 2746 2754 2705 2649 2566 2449 2299 2155 2031 1892 1714 1502 1324 1208 1103 1000 902 796 665 492 242 260 280 356
444 441 500 538 578 579 600 650 681 698 873 1082 1267 1373 1492 1675 1783 1842 1914 2012 2142 2257 2549 2877 3106 3293 3379 3352 3285 3206 3151 3095 3026 2967 2915 2870 2817 2718 2654 2701 2762 2757 2690 2594 2505 2363 2242 2116 1965 1784 1624 1495 1368 1286 1207 1148 1075 946 821 612 312 342 447
319 415 428 520 552 600 656 682 682 690 776 901 1107 1301 1433 1603 1803 1905 1943 1987 2086 2211 2421 2716 2999 3212 3376 3416 3376 3301 3225 3182 3121 3044 2969 2907 2837 2758 2670 2661 2735 2778 2742 2679 2583 2458 2324 2211 2113 1947 1780 1652 1555 1479 1421 1379 1306 1214 1105 965 770 480 614
166 374 339 346 392 447 502 509 588 753 783 810 956 1195 1390 1557 1728 1898 1982 2011 2061 2159 2319 2582 2881 3121 3332 3444 3446 3391 3309 3243 3196 3134 3058 2971 2896 2824 2738 2681 2689 2731 2750 2742 2690 2598 2477 2364 2250 2146 2016 1871 1762 1681 1618 1574 1538 1458 1364 1265 1128 988 973
49 194 446 389 324 424 498 551 629 755 879 964 1102 1261 1401 1612 1774 1851 1957 2019 2041 2098 2212 2472 2768 3013 3228 3411 3496 3507 3422 3332 3261 3198 3148 3068 2998 2913 2840 2747 2701 2697 2738 2756 2766 2737 2666 2563 2464 2364 2251 2160 2073 1981 1892 1805 1720 1661 1601 1531 1454 1361 1399
233 227 549 600 523 568 677 764 832 942 1146 1314 1382 1507 1585 1654 1814 1998 2065 2063 2087 2088 2115 2366 2660 2894 3120 3334 3514 3604 3553 3457 3366 3277 3190 3127 3069 3002 2939 2839 2746 2730 2720 2781 2822 2833 2802 2748 2685 2605 2523 2423 2344 2271 2208 2135 2057 1968 1914 1832 1755 1780 1732
623 586 628 652 731 748 800 929 990 1129 1366 1618 1714 1723 1772 1825 1900 2043 2176 2204 2178 2145 2162 2244 2513 2789 3032 3278 3516 3634 3644 3580 3483 3384 3283 3190 3120 3048 2988 2892 2817 2762 2751 2788 2872 2916 2918 2874 2836 2788 2743 2671 2583 2522 2445 2368 2306 2276 2220 2132 2084 2082 2039
1159 985 1072 1057 939 908 966 1108 1245 1356 1511 1734 1968 2027 1972 1978 2058 2164 2254 2318 2314 2272 2266 2246 2393 2676 2946 3205 3502 3656 3676 3646 3566 3488 3398 3294 3209 3124 3037 2980 2882 2808 2805 2807 2875 2969 3006 3005 2964 2928 2896 2838 2780 2716 2658 2592 2549 2488 2422 2377 2386 2415 2364
1692 1354 1326 1504 1516 1406 1230 1160 1312 1463 1548 1695 1960 2317 2295 2216 2228 2306 2361 2413 2451 2453 2410 2388 2377 2612 2870 3098 3382 3626 3693 3662 3597 3552 3467 3402 3315 3209 3141 3068 2985 2927 2881 2858 2912 3000 3042 3064 3053 3050 3033 2990 2940 2872 2843 2809 2783 2742 2707 2685 2674 2692 2535
1217 1424 1217 1315 1634 1878 1732 1586 1498 1590 1668 1701 1874 2333 2613 2586 2497 2472 2501 2507 2521 2544 2528 2489 2467 2504 2807 3013 3205 3477 3643 3643 3601 3579 3540 3482 3384 3275 3203 3148 3104 3050 3002 2976 2984 3037 3100 3156 3168 3164 3137 3100 3066 3050 3051 3069 3055 3015 2972 2916 2859 2774 2627
2042 542 81 268 258 1097 1692 2085 2100 2057 2402 2476 2366 2306 2559 2750 2792 2732 2713 2681 2661 2638 2598 2546 2536 2521 2714 2914 3055 3274 3506 3606 3610 3602 3573 3505 3406 3299 3226 3205 3187 3168 3142 3122 3112 3122 3170 3234 3302 3320 3316 3316 3287 3267 3295 3298 3261 3216 3143 3049 3003 2944 2853
2768 2866 2391 703 0 421 1058 1663 2061 2296 2499 2922 3060 2997 2910 2950 2932 2892 2918 2909 2852 2784 2745 2669 2618 2574 2628 2809 2954 3083 3380 3604 3651 3615 3555 3494 3413 3296 3221 3258 3282 3247 3245 3241 3229 3248 3268 3326 3380 3438 3501 3504 3506 3488 3493 3475 3416 3326 3230 3144 3079 2990 2799
2580 2756 3018 3142 3082 2160 573 1642 2279 2296 2363 2636 2970 3292 3459 3371 3201 3117 3073 3057 3003 2936 2887 2861 2795 2694 2622 2719 2826 2996 3270 3546 3671 3646 3578 3516 3441 3328 3266 3331 3352 3371 3359 3342 3325 3354 3385 3414 3457 3508 3552 3578 3604 3603 3579 3505 3446 3323 3272 3192 3134 2964 2749
2739 2883 2806 2991 3188 3136 2800 872 1004 1976 2462 2491 2719 2951 3414 3607 3477 3303 3218 3194 3154 3073 3033 3018 2972 2879 2766 2686 2814 2998 3251 3511 3679 3725 3700 3635 3584 3508 3461 3479 3499 3477 3449 3451 3458 3487 3539 3572 3577 3567 3625 3652 3641 3611 3547 3444 3398 3337 3242 3193 3095 2901 2625
2235 2551 2897 3059 3206 3366 3421 3343 2432 1911 2426 2744 3022 3210 3378 3493 3672 3600 3452 3335 3267 3253 3230 3193 3086 2979 2907 2861 2837 3090 3317 3566 3749 3827 3840 3830 3796 3745 3703 3679 3630 3596 3599 3576 3613 3632 3674 3688 3709 3721 3746 3735 3691 3613 3519 3444 3423 3366 3319 3229 3042 2741 2447
2202 2529 2829 2955 3243 3646 3657 3694 3343 3353 3275 3317 3377 3448 3558 3486 3538 3607 3583 3521 3535 3509 3425 3289 3203 3157 3058 2966 3135 3304 3559 3768 3881 3933 3999 4002 3980 3937 3886 3861 3806 3784 3753 3750 3768 3777 3777 3773 3780 3778 3756 3687 3632 3575 3510 3433 3352 3268 3212 2916 2649 2489 2149
2082 2198 2600 2910 3246 3593 3730 3973 3919 3532 3724 3696 3621 3610 3734 3694 3586 3672 3699 3765 3703 3737 3669 3597 3606 3584 3575 3490 3567 3748 3922 4060 4069 4102 4122 4137 4129 4076 4038 4016 4004 3984 3976 3952 3934 3919 3919 3910 3907 3884 3809 3722 3599 3465 3366 3218 3079 3007 2809 2463 2216 2065 1943
2113 2308 2486 2775 3048 3272 3684 3665 3814 4010 3981 3692 3807 3913 3861 3885 3866 3777 3837 3819 3852 3938 4020 4118 4212 4288 4215 4122 4164 4213 4303 4314 4277 4268 4256 4273 4254 4239 4170 4158 4181 4217 4205 4168 4127 4120 4126 4113 4039 3960 3827 3682 3541 3287 2988 2899 2745 2442 2219 2099 2046 1985 1941
2171 2288 2312 2497 2874 3089 3236 3557 3583 3528 3666 3847 3966 3997 3977 3933 3898 3920 3851 3800 3869 3986 4077 4472 4659 4545 4512 4493 4491 4426 4399 4428 4451 4439 4437 4411 4381 4322 4257 4270 4327 4365 4317 4274 4275 4241 4182 4114 3956 3815 3664 3399 3046 2868 2737 2410 2168 2013 1933 1966 1999 1904 1573
2260 2204 2241 2348 2395 2645 2888 3014 3191 3309 3252 3112 3413 3886 4099 4010 3988 3981 3921 3825 3936 3997 4002 4210 4630 4738 4698 4739 4724 4593 4447 4389 4433 4504 4518 4512 4484 4438 4383 4351 4372 4338 4366 4348 4233 4073 3887 3727 3460 3222 2922 2813 2713 2535 2237 2100 1998 1861 1807 1836 1738 1443 1232
2298 2413 2469 2322 2387 2386 2516 2602 2651 2726 2767 2860 2966 2936 3462 3990 4220 4215 4073 3954 3878 4026 4127 4097 4143 4524 4442 4422 4493 4666 4537 4391 4348 4408 4572 4583 4568 4529 4466 4398 4285 4321 4259 4009 3614 3418 3232 3021 2735 2703 2657 2532 2321 2090 1913 1752 1606 1465 1420 1381 1331 1379 1356
2286 2345 2406 2529 2524 2430 2396 2451 2378 2309 2180 2032 2220 2571 2825 2924 3338 3805 3646 3658 3642 3804 4018 4214 4352 4381 4498 4422 4407 4269 4165 4222 3970 4401 4564 4579 4551 4556 4457 4388 4283 4239 3963 3171 3004 2830 2724 2699 2622 2480 2284 2156 1948 1750 1590 1473 1412 1372 1319 1292 1278 1254 1211
2158 2192 2102 2107 2102 2143 2243 2220 2196 2235 2348 2216 2192 2350 2625 2908 2942 2812 2915 3163 3315 3336 3542 3771 3926 4083 4184 4201 4179 4065 3746 3966 4043 4035 4489 4497 4474 4330 3854 3881 3824 3242 2680 2707 2738 2722 2623 2453 2325 2101 1924 1785 1654 1479 1376 1300 1258 1176 1104 1005 932 909 933
1581 1688 1824 1792 1737 1571 1643 1792 2050 2290 2698 2811 2873 2896 2985 3073 3062 3184 3352 3424 3370 3637 3688 3482 3718 3827 3777 3796 3507 3368 3197 3662 3549 3450 3861 4006 3972 3815 3601 2923 2363 2385 2434 2489 2423 2336 2184 1929 1690 1580 1496 1323 1214 1123 1082 1073 999 908 821 779 690 725 719
1091 1167 1278 1356 1371 1363 1366 1432 1538 1698 1803 1873 1942 2120 2548 2545 2176 1954 1780 1772 1898 1288 668 1456 1498 2723 3075 2908 2789 2448 2656 2997 2708 2556 2811 3146 3208 3103 2503 2307 2300 2219 2120 1982 1867 1805 1670 1451 1228 1128 1058 975 917 928 928 867 847 755 700 671 646 669 616

ECMWFFLT1_con_mucape_048.txt.gz
CAPE
0 8 24 33 46 91 108 64 23 9 5 6 7 48 238 441 680 806 906 993 1054 1078 1102 1127 1203 1308 1374 1402 1410 1437 1486 1474 1400 1356 1304 1290 1290 1312 1355 1436 1535 1636 1740 1877 2001 2112 2208 2209 2278 2386 2452 2412 2350 2368 2476 2490 2395 2305 2240 2156 1824 976 683
0 0 1 5 20 38 56 50 12 2 0 1 2 14 117 329 536 692 804 912 1003 1047 1064 1107 1227 1284 1378 1416 1402 1410 1440 1472 1454 1442 1384 1341 1327 1327 1326 1379 1425 1513 1662 1840 1931 2034 2122 2163 2198 2255 2367 2416 2426 2496 2561 2540 2460 2336 2248 2211 1928 1093 698
0 0 0 0 0 13 33 25 12 3 0 0 2 2 58 222 412 592 715 808 911 991 1016 1058 1142 1263 1352 1414 1408 1408 1418 1444 1458 1450 1432 1397 1384 1378 1364 1359 1386 1399 1502 1742 1868 1960 2072 2117 2168 2202 2239 2303 2410 2488 2576 2563 2488 2380 2277 2236 1921 1128 756
0 0 0 0 0 0 4 18 26 6 0 0 0 0 7 128 281 467 623 728 822 902 971 1007 1098 1230 1330 1407 1431 1434 1436 1439 1450 1457 1455 1437 1404 1396 1386 1388 1373 1362 1356 1630 1838 1905 2018 2074 2151 2188 2231 2254 2362 2380 2500 2506 2453 2357 2279 2220 1930 1150 764
0 0 0 0 0 0 0 4 14 10 2 0 0 3 4 35 168 348 506 647 736 821 907 970 1032 1177 1289 1386 1448 1462 1461 1462 1460 1464 1463 1458 1422 1394 1385 1388 1382 1358 1337 1502 1777 1902 1924 2026 2101 2152 2180 2224 2270 2280 2388 2386 2365 2306 2234 2147 1832 1182 808
0 0 0 0 0 0 0 0 4 8 2 0 0 0 2 8 66 249 419 594 668 736 816 899 966 1177 1272 1350 1452 1484 1488 1484 1472 1471 1460 1458 1440 1411 1396 1399 1404 1386 1365 1369 1633 1791 1898 1958 2016 2048 2093 2122 2165 2206 2244 2220 2184 2149 2118 1921 1570 1172 928
0 0 0 0 0 0 0 0 0 2 2 0 0 0 2 1 44 157 311 466 612 676 738 833 917 1081 1282 1328 1415 1523 1500 1504 1496 1502 1474 1460 1445 1447 1426 1420 1419 1402 1393 1370 1421 1640 1796 1896 1938 1958 1957 1982 2004 2064 2104 2093 1990 1925 1845 1635 1321 1080 973
0 0 0 0 0 0 0 0 0 0 0 0 0 0 0 7 30 86 240 388 514 637 714 787 868 1047 1241 1380 1402 1467 1513 1508 1520 1511 1501 1465 1460 1471 1479 1470 1454 1423 1390 1379 1396 1486 1656 1769 1858 1862 1864 1854 1868 1924 1996 2012 1902 1737 1568 1350 1128 1030 1005
0 0 0 0 0 0 0 0 0 0 0 0 0 0 0 4 19 64 176 329 477 604 689 768 867 960 1189 1373 1463 1461 1500 1518 1530 1526 1512 1498 1481 1488 1514 1526 1518 1468 1418 1392 1398 1449 1542 1642 1723 1765 1783 1774 1792 1846 1907 1929 1852 1672 1455 1237 1080 1044 1051
0 0 0 0 0 0 0 0 0 0 0 0 0 0 0 10 31 49 108 257 440 604 695 766 866 957 1098 1290 1467 1516 1511 1525 1529 1536 1540 1531 1515 1511 1524 1556 1571 1558 1498 1442 1412 1433 1492 1540 1584 1642 1672 1681 1719 1764 1815 1834 1797 1683 1547 1383 1210 1142 1119
0 0 0 0 0 0 0 0 0 0 0 0 1 0 0 0 21 46 87 203 288 568 720 789 920 1024 1116 1208 1394 1487 1602 1570 1579 1595 1602 1591 1578 1565 1558 1566 1596 1606 1611 1558 1502 1476 1494 1518 1544 1571 1578 1609 1639 1672 1711 1752 1752 1684 1600 1506 1382 1260 1209
0 0 0 0 0 0 0 0 0 0 0 0 1 8 6 10 27 47 92 205 374 384 734 854 942 1087 1202 1236 1327 1467 1562 1616 1630 1654 1680 1679 1658 1646 1625 1625 1622 1639 1660 1662 1634 1594 1558 1547 1549 1565 1589 1611 1612 1612 1630 1645 1666 1664 1615 1550 1456 1334 1250
0 0 0 0 0 0 0 0 0 0 0 0 0 10 24 22 44 77 140 222 336 510 742 957 1060 1170 1281 1371 1404 1462 1530 1598 1665 1702 1734 1802 1765 1744 1733 1722 1720 1710 1713 1707 1714 1680 1642 1601 1568 1554 1554 1571 1585 1582 1578 1573 1571 1588 1586 1540 1463 1350 1261
0 0 0 0 0 0 0 0 0 0 0 0 2 20 36 53 88 148 198 249 338 491 743 998 1187 1270 1360 1475 1552 1582 1594 1630 1644 1734 1768 1798 1906 1897 1914 1854 1824 1811 1787 1780 1767 1749 1699 1642 1593 1580 1556 1550 1547 1556 1538 1521 1506 1528 1575 1547 1465 1374 1300
0 0 0 0 0 0 0 0 1 0 0 2 9 30 54 83 141 216 289 316 387 510 756 1066 1266 1374 1433 1542 1657 1714 1733 1750 1774 1798 1848 1904 1948 1978 1993 1988 2004 1908 1885 1869 1858 1820 1786 1723 1643 1606 1587 1584 1568 1548 1524 1506 1509 1571 1625 1584 1474 1387 1362
0 0 0 0 0 0 0 8 22 24 32 50 45 63 80 119 203 286 398 444 471 612 782 1060 1317 1444 1533 1606 1706 1779 1833 1899 1934 1950 1953 1968 1999 2035 2058 2042 2083 2004 1990 1978 1942 1912 1876 1828 1766 1704 1649 1612 1608 1609 1598 1589 1582 1632 1656 1602 1499 1423 1436
0 0 0 0 0 0 0 2 28 61 101 104 112 112 128 179 238 340 443 536 628 737 882 1092 1342 1498 1596 1688 1760 1823 1918 2001 2070 2102 2098 2096 2086 2099 2120 2126 2150 2173 2126 2068 2034 1992 1949 1913 1868 1810 1746 1688 1649 1636 1633 1646 1642 1682 1664 1609 1544 1510 1510
0 0 0 0 0 0 0 0 18 74 172 183 186 199 222 316 338 398 402 631 752 859 982 1153 1354 1509 1658 1752 1824 1916 2009 2087 2167 2210 2241 2224 2218 2202 2186 2190 2214 2241 2244 2148 2122 2080 2046 2008 1962 1914 1861 1810 1770 1714 1670 1638 1640 1656 1648 1611 1597 1588 1581
0 0 0 0 0 0 0 0 11 90 211 411 420 426 444 464 456 460 634 752 870 1016 1145 1272 1406 1564 1717 1814 1914 2027 2094 2171 2240 2295 2330 2343 2338 2309 2286 2286 2280 2232 2230 2222 2195 2172 2130 2092 2051 2021 1968 1915 1848 1801 1774 1718 1683 1657 1639 1632 1615 1608 1605
0 0 0 0 0 0 0 0 18 74 198 444 496 498 542 533 523 582 776 888 1002 1134 1319 1444 1538 1670 1789 1904 2010 2114 2196 2247 2298 2361 2396 2416 2418 2410 2398 2350 2320 2299 2291 2281 2260 2236 2214 2181 2143 2102 2062 2009 1942 1876 1817 1787 1763 1726 1689 1644 1609 1586 1578
279 631 4 0 0 0 0 0 5 41 102 410 532 592 593 588 619 788 947 1068 1173 1265 1442 1556 1683 1796 1902 2012 2114 2210 2289 2348 2381 2420 2449 2455 2467 2485 2502 2492 2422 2393 2373 2338 2330 2314 2294 2267 2230 2196 2156 2093 2018 1958 1898 1838 1764 1731 1701 1646 1600 1585 1590
1480 1459 1350 1077 450 0 0 0 12 38 84 152 476 574 635 679 731 900 1096 1192 1253 1344 1473 1635 1780 1910 2051 2159 2264 2360 2426 2474 2488 2496 2512 2510 2519 2548 2577 2542 2512 2495 2462 2423 2402 2386 2372 2352 2316 2284 2231 2182 2128 2082 2013 1907 1824 1778 1710 1650 1622 1634 1634
1414 1467 1398 1306 1346 852 159 6 261 487 428 219 338 502 670 786 854 996 1159 1270 1327 1439 1528 1661 1811 1978 2153 2295 2425 2530 2600 2620 2615 2608 2616 2605 2594 2613 2638 2582 2589 2570 2552 2515 2494 2466 2452 2444 2421 2375 2335 2292 2230 2202 2137 2022 1911 1856 1799 1752 1734 1701 1705
1645 1760 1695 1620 1592 1369 1393 907 262 450 525 532 499 480 639 861 974 1056 1180 1356 1457 1532 1620 1681 1792 1951 2158 2355 2511 2654 2737 2766 2741 2676 2670 2729 2716 2713 2699 2639 2635 2636 2612 2590 2574 2559 2542 2537 2506 2479 2429 2390 2342 2284 2237 2148 2026 1946 1891 1864 1851 1818 1808
1920 2184 2409 2242 1809 1610 1384 990 915 524 271 270 395 504 631 888 1094 1174 1244 1406 1531 1620 1670 1701 1770 1890 2078 2308 2509 2658 2789 2858 2884 2873 2848 2843 2799 2768 2738 2718 2714 2694 2657 2648 2643 2635 2627 2603 2574 2562 2523 2504 2436 2376 2295 2209 2104 2032 1984 1964 1956 1954 1937
2138 2446 2781 2836 2417 1967 1605 1210 941 1112 1023 914 837 746 708 829 1079 1247 1318 1408 1525 1609 1670 1750 1830 1915 1999 2163 2377 2570 2736 2887 2949 2968 2960 2969 2898 2870 2844 2826 2774 2754 2726 2719 2716 2724 2711 2668 2625 2607 2597 2539 2500 2432 2380 2295 2158 2100 2068 2064 2046 2050 2045
2099 2251 2729 3118 3137 2784 2467 2255 2077 1906 1845 1841 1758 1367 1197 1050 970 1163 1302 1402 1497 1602 1682 1755 1800 1877 1973 2070 2220 2387 2634 2818 2958 3007 2967 2975 2989 2975 2941 2900 2888 2852 2800 2781 2763 2749 2744 2730 2690 2658 2644 2628 2554 2486 2446 2387 2310 2234 2197 2164 2144 2149 2127
2136 2084 2233 2722 3221 3410 3368 3097 2834 2582 2386 2350 2394 2070 1568 1346 1232 1166 1230 1343 1472 1609 1672 1737 1753 1825 1912 1998 2116 2308 2494 2704 2886 2970 3014 3032 3005 3009 2986 2984 2954 2916 2881 2847 2816 2782 2765 2763 2766 2737 2723 2675 2638 2579 2511 2454 2419 2369 2358 2305 2298 2294 2278
1489 1531 1648 2042 2620 3093 3354 3434 3528 3302 2968 2749 2666 2685 2554 2082 1684 1515 1492 1465 1488 1636 1624 1684 1782 1840 1898 1966 2039 2146 2386 2590 2712 2817 2953 2990 2957 2952 2982 2989 2958 2944 2924 2894 2849 2824 2807 2839 2844 2816 2748 2665 2727 2661 2584 2519 2494 2498 2512 2480 2453 2471 2462
1463 1705 2164 2340 2592 2718 2902 3151 3324 3474 3551 3451 3190 2970 2858 2960 2767 2451 2251 2168 2089 2464 2488 2029 1789 1846 1822 1918 1973 2050 2196 2369 2565 2700 2821 2918 2966 2985 3040 3043 3004 2984 2953 2941 2912 2876 2889 2926 2914 2892 2830 2757 2746 2703 2676 2591 2553 2571 2594 2598 2588 2596 2616
1372 1664 1889 2028 2335 2580 2667 2720 2886 3060 3082 3456 3557 3661 3436 3167 3104 3036 2988 2780 2642 2754 2870 2771 2558 2484 2442 2388 2330 2307 2214 2234 2419 2592 2700 2906 2953 2980 3044 3091 3034 2957 2941 2956 2982 2992 2990 2957 2933 2906 2884 2824 2783 2729 2654 2679 2633 2656 2684 2689 2691 2710 2754
1354 1609 1758 1820 1988 2300 2504 2650 2741 2690 2787 2865 2752 2954 3320 3510 3682 3472 3377 3269 3176 3144 3116 3155 3105 3024 2964 2934 2902 2795 2688 2550 2496 2391 2502 2732 2893 2954 3011 3025 3002 2962 2986 2993 3028 3030 3014 3003 2942 2942 2931 2874 2844 2779 2752 2720 2706 2723 2736 2760 2781 2793 2864
1365 1544 1464 1510 1879 1912 2026 2223 2330 2536 2576 2602 2575 2531 2522 2523 2566 2680 2896 3256 3643 3596 3487 3395 3347 3374 3340 3292 3201 3167 3105 3062 3018 2982 2867 2725 2631 2936 2965 2976 2971 3003 3027 3016 3025 3024 3004 2986 2965 2959 2931 2931 2899 2843 2816 2785 2782 2758 2760 2795 2812 2847 2930
1613 1740 1850 1920 1787 1864 1882 1870 1879 2179 2247 2322 2324 2342 2230 2197 2160 2114 2084 2108 2220 2459 2706 3148 3536 3646 3598 3516 3451 3402 3351 3324 3249 3231 3157 3214 3107 3067 3016 2913 2940 3036 3018 2988 2962 2994 3003 2988 3008 2976 2952 2936 2934 2884 2830 2781 2884 2849 2800 2788 2823 2904 3019
1615 1742 1898 1819 1989 1866 1896 1841 1901 1806 1890 2025 2034 2082 2157 2060 1940 1878 1808 1789 1779 1808 2233 2515 2660 2878 3188 3566 3764 3734 3643 3606 3542 3488 3404 3352 3297 3242 3297 3356 3317 3167 3140 3065 2946 2923 2954 2930 2930 2941 2930 2914 2892 2923 2907 2920 2880 2863 2875 2831 2888 2950 3175
1266 1172 1226 1393 1454 1612 1667 1664 1596 1610 1641 1664 1802 1914 1882 1796 1760 1707 1608 1544 1544 1565 1592 1916 2308 2566 2778 2934 3035 3205 3461 3719 3829 3863 3836 3664 3612 3555 3439 3357 3270 3208 3204 3183 3142 3073 2932 2897 2815 2792 2930 2966 2992 2958 2999 2922 2912 2932 2853 2940 2982 3110 3284
970 963 966 989 1069 1150 1194 1294 1427 1508 1608 1692 1791 1765 1638 1452 1264 1172 1148 1162 1169 1247 1347 1352 1596 1934 1985 2167 2625 2852 3138 3234 3380 3548 3709 3856 3927 3911 3812 3684 3431 3214 3124 3178 3260 3172 3067 3072 3119 2878 2708 2813 2866 3062 3044 2909 2785 2622 2545 2594 3034 3028 3138
1002 1015 1041 1081 1130 1201 1294 1375 1416 1370 1289 1288 1258 1280 1359 1230 1026 979 978 1047 1072 1070 1076 1086 1053 1042 1004 1018 1154 1348 1558 1734 1922 2141 2323 2629 2998 3278 3405 3389 3428 3333 3142 3049 2879 2791 2868 2919 2896 2841 2947 2837 2669 2806 2471 2894 2551 2050 2179 2346 2309 2504 2870